2016 Cux-Wetter.de -Die Nutzung der Wetterdaten nur mit ausdrcklicher Genehmigung
Wetterdaten: Dienstag, 17.10.2017
Datum Zeit Temp. A. Feuchte A. Luftdruck Regen Wind Richtung Richtung Sonnenschein Solar Taupunkt Windchill Windben
17.10.2017 00:00 19,0 C 81 % 1016,5 hPa 0,0 l/m 11,4 km/h (2 Bft) SW 232 0 min 0 W/m 15,7 C 17,1 C 19,3 km/h (3 Bft)
17.10.2017 00:03 19,0 C 81 % 1016,4 hPa 0,0 l/m 11,1 km/h (2 Bft) S-SW 202 0 min 0 W/m 15,7 C 17,2 C 24,1 km/h (4 Bft)
17.10.2017 00:06 18,9 C 81 % 1016,4 hPa 0,0 l/m 8,9 km/h (2 Bft) S-SW 194 0 min 0 W/m 15,6 C 17,8 C 17,7 km/h (3 Bft)
17.10.2017 00:09 18,9 C 81 % 1016,4 hPa 0,0 l/m 9,7 km/h (2 Bft) S 182 0 min 0 W/m 15,6 C 17,5 C 17,7 km/h (3 Bft)
17.10.2017 00:12 18,8 C 81 % 1016,4 hPa 0,0 l/m 8,5 km/h (2 Bft) S-SW 207 0 min 0 W/m 15,5 C 17,9 C 16,1 km/h (3 Bft)
17.10.2017 00:15 18,8 C 81 % 1016,4 hPa 0,0 l/m 10,6 km/h (2 Bft) SW 236 0 min 0 W/m 15,5 C 17,1 C 20,9 km/h (4 Bft)
17.10.2017 00:18 18,7 C 81 % 1016,4 hPa 0,0 l/m 8,9 km/h (2 Bft) S-SW 198 0 min 0 W/m 15,4 C 17,6 C 17,7 km/h (3 Bft)
17.10.2017 00:21 18,7 C 81 % 1016,4 hPa 0,0 l/m 11,2 km/h (2 Bft) S-SW 209 0 min 0 W/m 15,4 C 16,8 C 17,7 km/h (3 Bft)
17.10.2017 00:24 18,7 C 81 % 1016,4 hPa 0,0 l/m 10,7 km/h (2 Bft) SW 220 0 min 0 W/m 15,4 C 17,0 C 17,7 km/h (3 Bft)
17.10.2017 00:27 18,6 C 81 % 1016,4 hPa 0,0 l/m 9,8 km/h (2 Bft) S-SW 209 0 min 0 W/m 15,3 C 17,2 C 16,1 km/h (3 Bft)
17.10.2017 00:30 18,6 C 81 % 1016,4 hPa 0,0 l/m 10,2 km/h (2 Bft) S-SW 192 0 min 0 W/m 15,3 C 17,0 C 17,7 km/h (3 Bft)
17.10.2017 00:33 18,6 C 81 % 1016,4 hPa 0,0 l/m 8,9 km/h (2 Bft) SW 220 0 min 0 W/m 15,3 C 17,5 C 19,3 km/h (3 Bft)
17.10.2017 00:36 18,6 C 81 % 1016,4 hPa 0,0 l/m 10,9 km/h (2 Bft) SW 236 0 min 0 W/m 15,3 C 16,8 C 22,5 km/h (4 Bft)
17.10.2017 00:39 18,6 C 81 % 1016,4 hPa 0,0 l/m 10,7 km/h (2 Bft) S-SW 206 0 min 0 W/m 15,3 C 16,8 C 19,3 km/h (3 Bft)
17.10.2017 00:42 18,5 C 81 % 1016,4 hPa 0,0 l/m 11,0 km/h (2 Bft) S-SW 196 0 min 0 W/m 15,2 C 16,6 C 20,9 km/h (4 Bft)
17.10.2017 00:45 18,5 C 81 % 1016,4 hPa 0,0 l/m 12,6 km/h (3 Bft) W-SW 242 0 min 0 W/m 15,2 C 16,1 C 20,9 km/h (4 Bft)
17.10.2017 00:48 18,5 C 81 % 1016,4 hPa 0,0 l/m 12,4 km/h (2 Bft) S-SW 199 0 min 0 W/m 15,2 C 16,2 C 19,3 km/h (3 Bft)
17.10.2017 00:51 18,5 C 81 % 1016,4 hPa 0,0 l/m 11,1 km/h (2 Bft) S-SW 213 0 min 0 W/m 15,2 C 16,6 C 22,5 km/h (4 Bft)
17.10.2017 00:54 18,5 C 81 % 1016,4 hPa 0,0 l/m 12,5 km/h (2 Bft) S 188 0 min 0 W/m 15,2 C 16,1 C 19,3 km/h (3 Bft)
17.10.2017 00:57 18,5 C 81 % 1016,4 hPa 0,0 l/m 11,8 km/h (2 Bft) W-SW 241 0 min 0 W/m 15,2 C 16,4 C 17,7 km/h (3 Bft)
17.10.2017 01:00 18,5 C 81 % 1016,4 hPa 0,0 l/m 12,4 km/h (2 Bft) S-SW 213 0 min 0 W/m 15,2 C 16,2 C 20,9 km/h (4 Bft)
17.10.2017 01:03 18,6 C 81 % 1016,4 hPa 0,0 l/m 11,9 km/h (2 Bft) SW 235 0 min 0 W/m 15,3 C 16,4 C 22,5 km/h (4 Bft)
17.10.2017 01:06 18,5 C 81 % 1016,5 hPa 0,0 l/m 13,0 km/h (3 Bft) S 187 0 min 0 W/m 15,2 C 16,0 C 22,5 km/h (4 Bft)
17.10.2017 01:09 18,5 C 81 % 1016,5 hPa 0,0 l/m 12,0 km/h (2 Bft) SW 230 0 min 0 W/m 15,2 C 16,3 C 19,3 km/h (3 Bft)
17.10.2017 01:12 18,5 C 81 % 1016,6 hPa 0,0 l/m 13,3 km/h (3 Bft) W-SW 237 0 min 0 W/m 15,2 C 15,9 C 20,9 km/h (4 Bft)
17.10.2017 01:15 18,4 C 81 % 1016,6 hPa 0,0 l/m 12,5 km/h (2 Bft) SW 234 0 min 0 W/m 15,1 C 16,0 C 22,5 km/h (4 Bft)
17.10.2017 01:18 18,4 C 81 % 1016,6 hPa 0,0 l/m 14,5 km/h (3 Bft) S-SW 209 0 min 0 W/m 15,1 C 15,4 C 24,1 km/h (4 Bft)
17.10.2017 01:21 18,4 C 81 % 1016,6 hPa 0,0 l/m 11,6 km/h (2 Bft) S-SW 202 0 min 0 W/m 15,1 C 16,3 C 17,7 km/h (3 Bft)
17.10.2017 01:24 18,4 C 81 % 1016,7 hPa 0,0 l/m 12,8 km/h (3 Bft) S 182 0 min 0 W/m 15,1 C 15,9 C 22,5 km/h (4 Bft)
17.10.2017 01:27 18,4 C 81 % 1016,7 hPa 0,0 l/m 12,8 km/h (3 Bft) S 174 0 min 0 W/m 15,1 C 15,9 C 19,3 km/h (3 Bft)
17.10.2017 01:30 18,3 C 81 % 1016,7 hPa 0,0 l/m 12,1 km/h (2 Bft) SW 226 0 min 0 W/m 15,0 C 16,0 C 19,3 km/h (3 Bft)
17.10.2017 01:33 18,3 C 81 % 1016,6 hPa 0,0 l/m 12,1 km/h (2 Bft) W-SW 240 0 min 0 W/m 15,0 C 16,0 C 22,5 km/h (4 Bft)
17.10.2017 01:36 18,3 C 81 % 1016,6 hPa 0,0 l/m 13,9 km/h (3 Bft) S-SW 211 0 min 0 W/m 15,0 C 15,5 C 25,7 km/h (4 Bft)
17.10.2017 01:39 18,3 C 81 % 1016,6 hPa 0,0 l/m 13,5 km/h (3 Bft) SW 225 0 min 0 W/m 15,0 C 15,6 C 19,3 km/h (3 Bft)
17.10.2017 01:42 18,3 C 81 % 1016,6 hPa 0,0 l/m 13,9 km/h (3 Bft) SW 219 0 min 0 W/m 15,0 C 15,5 C 22,5 km/h (4 Bft)
17.10.2017 01:45 18,3 C 81 % 1016,6 hPa 0,0 l/m 14,1 km/h (3 Bft) S-SW 207 0 min 0 W/m 15,0 C 15,4 C 25,7 km/h (4 Bft)
17.10.2017 01:48 18,3 C 81 % 1016,7 hPa 0,0 l/m 12,9 km/h (3 Bft) S-SW 205 0 min 0 W/m 15,0 C 15,8 C 20,9 km/h (4 Bft)
17.10.2017 01:51 18,2 C 81 % 1016,7 hPa 0,0 l/m 13,9 km/h (3 Bft) S-SW 202 0 min 0 W/m 14,9 C 15,4 C 25,7 km/h (4 Bft)
17.10.2017 01:54 18,2 C 81 % 1016,7 hPa 0,0 l/m 12,6 km/h (3 Bft) S-SW 207 0 min 0 W/m 14,9 C 15,8 C 22,5 km/h (4 Bft)
17.10.2017 01:57 18,2 C 81 % 1016,7 hPa 0,0 l/m 10,8 km/h (2 Bft) SW 223 0 min 0 W/m 14,9 C 16,4 C 17,7 km/h (3 Bft)
17.10.2017 02:00 18,1 C 81 % 1016,7 hPa 0,0 l/m 11,5 km/h (2 Bft) SW 219 0 min 0 W/m 14,8 C 16,0 C 17,7 km/h (3 Bft)
17.10.2017 02:03 18,1 C 82 % 1016,7 hPa 0,0 l/m 11,0 km/h (2 Bft) SW 225 0 min 0 W/m 15,0 C 16,2 C 17,7 km/h (3 Bft)
17.10.2017 02:06 18,1 C 82 % 1016,7 hPa 0,0 l/m 12,6 km/h (3 Bft) W-SW 243 0 min 0 W/m 15,0 C 15,6 C 19,3 km/h (3 Bft)
17.10.2017 02:09 18,0 C 82 % 1016,8 hPa 0,0 l/m 13,2 km/h (3 Bft) SW 216 0 min 0 W/m 14,9 C 15,3 C 20,9 km/h (4 Bft)
17.10.2017 02:12 18,0 C 82 % 1016,8 hPa 0,0 l/m 11,5 km/h (2 Bft) SW 231 0 min 0 W/m 14,9 C 15,9 C 22,5 km/h (4 Bft)
17.10.2017 02:15 18,0 C 82 % 1016,7 hPa 0,0 l/m 12,6 km/h (3 Bft) SW 228 0 min 0 W/m 14,9 C 15,5 C 20,9 km/h (4 Bft)
17.10.2017 02:18 18,0 C 82 % 1016,8 hPa 0,0 l/m 12,7 km/h (3 Bft) SW 229 0 min 0 W/m 14,9 C 15,5 C 24,1 km/h (4 Bft)
17.10.2017 02:21 18,0 C 82 % 1016,8 hPa 0,0 l/m 12,3 km/h (2 Bft) SW 223 0 min 0 W/m 14,9 C 15,6 C 17,7 km/h (3 Bft)
17.10.2017 02:24 17,9 C 82 % 1016,7 hPa 0,0 l/m 13,6 km/h (3 Bft) SW 234 0 min 0 W/m 14,8 C 15,1 C 22,5 km/h (4 Bft)
17.10.2017 02:27 17,9 C 82 % 1016,7 hPa 0,0 l/m 13,4 km/h (3 Bft) SW 224 0 min 0 W/m 14,8 C 15,2 C 20,9 km/h (4 Bft)
17.10.2017 02:30 17,9 C 82 % 1016,7 hPa 0,0 l/m 12,3 km/h (2 Bft) S-SW 198 0 min 0 W/m 14,8 C 15,5 C 19,3 km/h (3 Bft)
17.10.2017 02:33 17,9 C 82 % 1016,7 hPa 0,0 l/m 13,4 km/h (3 Bft) SW 215 0 min 0 W/m 14,8 C 15,2 C 20,9 km/h (4 Bft)
17.10.2017 02:36 17,9 C 82 % 1016,7 hPa 0,0 l/m 13,6 km/h (3 Bft) S-SW 206 0 min 0 W/m 14,8 C 15,1 C 24,1 km/h (4 Bft)
17.10.2017 02:39 17,9 C 82 % 1016,7 hPa 0,0 l/m 12,9 km/h (3 Bft) S-SW 209 0 min 0 W/m 14,8 C 15,3 C 20,9 km/h (4 Bft)
17.10.2017 02:42 17,9 C 82 % 1016,7 hPa 0,0 l/m 13,6 km/h (3 Bft) W-SW 248 0 min 0 W/m 14,8 C 15,1 C 22,5 km/h (4 Bft)
17.10.2017 02:45 17,9 C 83 % 1016,8 hPa 0,0 l/m 12,0 km/h (2 Bft) SW 228 0 min 0 W/m 15,0 C 15,6 C 16,1 km/h (3 Bft)
17.10.2017 02:48 17,8 C 83 % 1016,7 hPa 0,0 l/m 11,1 km/h (2 Bft) S-SO 149 0 min 0 W/m 14,9 C 15,8 C 16,1 km/h (3 Bft)
17.10.2017 02:51 17,8 C 83 % 1016,7 hPa 0,0 l/m 10,9 km/h (2 Bft) SW 229 0 min 0 W/m 14,9 C 15,9 C 19,3 km/h (3 Bft)
17.10.2017 02:54 17,8 C 83 % 1016,8 hPa 0,0 l/m 12,0 km/h (2 Bft) SW 224 0 min 0 W/m 14,9 C 15,5 C 19,3 km/h (3 Bft)
17.10.2017 02:57 17,8 C 83 % 1016,8 hPa 0,0 l/m 11,0 km/h (2 Bft) SW 235 0 min 0 W/m 14,9 C 15,8 C 17,7 km/h (3 Bft)
17.10.2017 03:00 17,7 C 83 % 1016,7 hPa 0,0 l/m 12,6 km/h (3 Bft) SW 225 0 min 0 W/m 14,8 C 15,2 C 19,3 km/h (3 Bft)
17.10.2017 03:03 17,7 C 83 % 1016,7 hPa 0,0 l/m 10,7 km/h (2 Bft) SW 217 0 min 0 W/m 14,8 C 15,8 C 17,7 km/h (3 Bft)
17.10.2017 03:06 17,7 C 83 % 1016,7 hPa 0,0 l/m 11,5 km/h (2 Bft) SW 223 0 min 0 W/m 14,8 C 15,6 C 17,7 km/h (3 Bft)
17.10.2017 03:09 17,7 C 83 % 1016,6 hPa 0,0 l/m 12,3 km/h (2 Bft) S-SW 213 0 min 0 W/m 14,8 C 15,3 C 19,3 km/h (3 Bft)
17.10.2017 03:12 17,7 C 83 % 1016,7 hPa 0,0 l/m 11,9 km/h (2 Bft) SW 230 0 min 0 W/m 14,8 C 15,4 C 19,3 km/h (3 Bft)
17.10.2017 03:15 17,7 C 83 % 1016,6 hPa 0,0 l/m 12,4 km/h (2 Bft) S-SW 212 0 min 0 W/m 14,8 C 15,2 C 20,9 km/h (4 Bft)
17.10.2017 03:18 17,7 C 83 % 1016,6 hPa 0,0 l/m 14,5 km/h (3 Bft) SW 227 0 min 0 W/m 14,8 C 14,6 C 20,9 km/h (4 Bft)
17.10.2017 03:21 17,7 C 83 % 1016,6 hPa 0,0 l/m 11,6 km/h (2 Bft) SW 223 0 min 0 W/m 14,8 C 15,5 C 17,7 km/h (3 Bft)
17.10.2017 03:24 17,7 C 83 % 1016,6 hPa 0,0 l/m 12,5 km/h (2 Bft) SW 225 0 min 0 W/m 14,8 C 15,2 C 17,7 km/h (3 Bft)
17.10.2017 03:27 17,7 C 83 % 1016,7 hPa 0,0 l/m 12,9 km/h (3 Bft) SW 217 0 min 0 W/m 14,8 C 15,1 C 20,9 km/h (4 Bft)
17.10.2017 03:30 17,7 C 83 % 1016,7 hPa 0,0 l/m 11,8 km/h (2 Bft) S-SW 205 0 min 0 W/m 14,8 C 15,4 C 20,9 km/h (4 Bft)
17.10.2017 03:33 17,7 C 84 % 1016,7 hPa 0,0 l/m 14,4 km/h (3 Bft) S-SW 205 0 min 0 W/m 15,0 C 14,6 C 22,5 km/h (4 Bft)
17.10.2017 03:36 17,7 C 84 % 1016,6 hPa 0,0 l/m 14,6 km/h (3 Bft) S-SW 211 0 min 0 W/m 15,0 C 14,6 C 22,5 km/h (4 Bft)
17.10.2017 03:39 17,7 C 84 % 1016,7 hPa 0,0 l/m 14,1 km/h (3 Bft) SW 229 0 min 0 W/m 15,0 C 14,7 C 20,9 km/h (4 Bft)
17.10.2017 03:42 17,7 C 84 % 1016,6 hPa 0,0 l/m 14,0 km/h (3 Bft) SW 216 0 min 0 W/m 15,0 C 14,8 C 24,1 km/h (4 Bft)
17.10.2017 03:45 17,7 C 84 % 1016,6 hPa 0,0 l/m 14,0 km/h (3 Bft) S-SW 210 0 min 0 W/m 15,0 C 14,8 C 19,3 km/h (3 Bft)
17.10.2017 03:48 17,7 C 84 % 1016,6 hPa 0,0 l/m 11,9 km/h (2 Bft) S-SW 205 0 min 0 W/m 15,0 C 15,4 C 20,9 km/h (4 Bft)
17.10.2017 03:51 17,7 C 84 % 1016,6 hPa 0,0 l/m 11,4 km/h (2 Bft) S-SW 202 0 min 0 W/m 15,0 C 15,6 C 19,3 km/h (3 Bft)
17.10.2017 03:54 17,6 C 84 % 1016,7 hPa 0,0 l/m 12,6 km/h (3 Bft) SW 230 0 min 0 W/m 14,9 C 15,1 C 17,7 km/h (3 Bft)
17.10.2017 03:57 17,6 C 84 % 1016,7 hPa 0,0 l/m 14,8 km/h (3 Bft) SW 223 0 min 0 W/m 14,9 C 14,4 C 20,9 km/h (4 Bft)
17.10.2017 04:00 17,6 C 84 % 1016,7 hPa 0,0 l/m 13,7 km/h (3 Bft) SW 226 0 min 0 W/m 14,9 C 14,7 C 19,3 km/h (3 Bft)
17.10.2017 04:03 17,5 C 84 % 1016,7 hPa 0,0 l/m 14,4 km/h (3 Bft) SW 225 0 min 0 W/m 14,8 C 14,4 C 20,9 km/h (4 Bft)
17.10.2017 04:06 17,5 C 84 % 1016,7 hPa 0,0 l/m 15,1 km/h (3 Bft) W-SW 253 0 min 0 W/m 14,8 C 14,2 C 22,5 km/h (4 Bft)
17.10.2017 04:09 17,4 C 85 % 1016,7 hPa 0,0 l/m 13,7 km/h (3 Bft) SW 236 0 min 0 W/m 14,8 C 14,5 C 20,9 km/h (4 Bft)
17.10.2017 04:12 17,4 C 85 % 1016,6 hPa 0,0 l/m 13,3 km/h (3 Bft) S-SW 213 0 min 0 W/m 14,8 C 14,6 C 24,1 km/h (4 Bft)
17.10.2017 04:15 17,4 C 85 % 1016,6 hPa 0,0 l/m 13,3 km/h (3 Bft) SW 234 0 min 0 W/m 14,8 C 14,6 C 19,3 km/h (3 Bft)
17.10.2017 04:18 17,3 C 85 % 1016,6 hPa 0,0 l/m 13,8 km/h (3 Bft) SW 229 0 min 0 W/m 14,8 C 14,3 C 19,3 km/h (3 Bft)
17.10.2017 04:21 17,3 C 85 % 1016,7 hPa 0,0 l/m 12,6 km/h (3 Bft) SW 216 0 min 0 W/m 14,8 C 14,7 C 22,5 km/h (4 Bft)
17.10.2017 04:24 17,3 C 85 % 1016,6 hPa 0,0 l/m 13,2 km/h (3 Bft) SW 234 0 min 0 W/m 14,8 C 14,5 C 22,5 km/h (4 Bft)
17.10.2017 04:27 17,2 C 85 % 1016,6 hPa 0,0 l/m 13,2 km/h (3 Bft) S 185 0 min 0 W/m 14,7 C 14,4 C 22,5 km/h (4 Bft)
17.10.2017 04:30 17,2 C 85 % 1016,7 hPa 0,0 l/m 12,0 km/h (2 Bft) SW 218 0 min 0 W/m 14,7 C 14,8 C 20,9 km/h (4 Bft)
17.10.2017 04:33 17,2 C 85 % 1016,6 hPa 0,0 l/m 13,8 km/h (3 Bft) SW 227 0 min 0 W/m 14,7 C 14,2 C 19,3 km/h (3 Bft)
17.10.2017 04:36 17,2 C 86 % 1016,6 hPa 0,0 l/m 14,3 km/h (3 Bft) S 187 0 min 0 W/m 14,8 C 14,1 C 20,9 km/h (4 Bft)
17.10.2017 04:39 17,2 C 86 % 1016,6 hPa 0,0 l/m 13,4 km/h (3 Bft) SW 217 0 min 0 W/m 14,8 C 14,3 C 19,3 km/h (3 Bft)
17.10.2017 04:42 17,1 C 86 % 1016,7 hPa 0,0 l/m 14,9 km/h (3 Bft) S-SW 211 0 min 0 W/m 14,7 C 13,8 C 24,1 km/h (4 Bft)
17.10.2017 04:45 17,1 C 86 % 1016,7 hPa 0,0 l/m 12,4 km/h (2 Bft) SW 223 0 min 0 W/m 14,7 C 14,6 C 19,3 km/h (3 Bft)
17.10.2017 04:48 17,0 C 86 % 1016,7 hPa 0,0 l/m 11,5 km/h (2 Bft) S-SW 196 0 min 0 W/m 14,6 C 14,8 C 16,1 km/h (3 Bft)
17.10.2017 04:51 16,9 C 86 % 1016,7 hPa 0,0 l/m 14,9 km/h (3 Bft) W-SW 240 0 min 0 W/m 14,5 C 13,5 C 22,5 km/h (4 Bft)
17.10.2017 04:54 16,9 C 86 % 1016,7 hPa 0,0 l/m 11,9 km/h (2 Bft) SW 228 0 min 0 W/m 14,5 C 14,5 C 22,5 km/h (4 Bft)
17.10.2017 04:57 16,9 C 86 % 1016,7 hPa 0,0 l/m 12,4 km/h (2 Bft) SW 229 0 min 0 W/m 14,5 C 14,3 C 19,3 km/h (3 Bft)
17.10.2017 05:00 16,8 C 86 % 1016,6 hPa 0,0 l/m 12,2 km/h (2 Bft) S-SW 209 0 min 0 W/m 14,4 C 14,3 C 19,3 km/h (3 Bft)
17.10.2017 05:03 16,8 C 86 % 1016,6 hPa 0,0 l/m 12,7 km/h (3 Bft) SW 223 0 min 0 W/m 14,4 C 14,1 C 22,5 km/h (4 Bft)
17.10.2017 05:06 16,8 C 86 % 1016,6 hPa 0,0 l/m 10,7 km/h (2 Bft) SW 218 0 min 0 W/m 14,4 C 14,8 C 19,3 km/h (3 Bft)
17.10.2017 05:09 16,8 C 87 % 1016,6 hPa 0,0 l/m 14,9 km/h (3 Bft) SW 234 0 min 0 W/m 14,6 C 13,4 C 20,9 km/h (4 Bft)
17.10.2017 05:12 16,7 C 87 % 1016,6 hPa 0,0 l/m 12,9 km/h (3 Bft) SW 230 0 min 0 W/m 14,5 C 13,9 C 22,5 km/h (4 Bft)
17.10.2017 05:15 16,7 C 87 % 1016,6 hPa 0,0 l/m 11,0 km/h (2 Bft) SW 217 0 min 0 W/m 14,5 C 14,6 C 16,1 km/h (3 Bft)
17.10.2017 05:18 16,7 C 87 % 1016,5 hPa 0,0 l/m 13,6 km/h (3 Bft) S-SW 211 0 min 0 W/m 14,5 C 13,7 C 22,5 km/h (4 Bft)
17.10.2017 05:21 16,7 C 87 % 1016,5 hPa 0,0 l/m 15,3 km/h (3 Bft) SW 233 0 min 0 W/m 14,5 C 13,2 C 24,1 km/h (4 Bft)
17.10.2017 05:24 16,6 C 87 % 1016,5 hPa 0,0 l/m 13,8 km/h (3 Bft) SW 227 0 min 0 W/m 14,4 C 13,5 C 20,9 km/h (4 Bft)
17.10.2017 05:27 16,6 C 87 % 1016,5 hPa 0,0 l/m 13,5 km/h (3 Bft) SW 223 0 min 0 W/m 14,4 C 13,6 C 22,5 km/h (4 Bft)
17.10.2017 05:30 16,6 C 87 % 1016,5 hPa 0,0 l/m 14,5 km/h (3 Bft) S 190 0 min 0 W/m 14,4 C 13,3 C 24,1 km/h (4 Bft)
17.10.2017 05:33 16,6 C 86 % 1016,5 hPa 0,0 l/m 16,0 km/h (3 Bft) SW 219 0 min 0 W/m 14,2 C 12,8 C 25,7 km/h (4 Bft)
17.10.2017 05:36 16,5 C 86 % 1016,4 hPa 0,0 l/m 10,8 km/h (2 Bft) SW 233 0 min 0 W/m 14,1 C 14,5 C 17,7 km/h (3 Bft)
17.10.2017 05:39 16,4 C 86 % 1016,5 hPa 0,0 l/m 13,2 km/h (3 Bft) SW 221 0 min 0 W/m 14,1 C 13,5 C 19,3 km/h (3 Bft)
17.10.2017 05:42 16,4 C 86 % 1016,5 hPa 0,0 l/m 13,1 km/h (3 Bft) SW 234 0 min 0 W/m 14,1 C 13,5 C 19,3 km/h (3 Bft)
17.10.2017 05:45 16,4 C 86 % 1016,5 hPa 0,0 l/m 11,7 km/h (2 Bft) S-SW 211 0 min 0 W/m 14,1 C 14,0 C 19,3 km/h (3 Bft)
17.10.2017 05:48 16,3 C 86 % 1016,5 hPa 0,0 l/m 13,2 km/h (3 Bft) SW 215 0 min 0 W/m 14,0 C 13,3 C 20,9 km/h (4 Bft)
17.10.2017 05:51 16,3 C 86 % 1016,5 hPa 0,0 l/m 12,8 km/h (3 Bft) W-SW 242 0 min 0 W/m 14,0 C 13,5 C 20,9 km/h (4 Bft)
17.10.2017 05:54 16,3 C 86 % 1016,5 hPa 0,0 l/m 12,2 km/h (2 Bft) SW 232 0 min 0 W/m 14,0 C 13,7 C 17,7 km/h (3 Bft)
17.10.2017 05:57 16,3 C 86 % 1016,5 hPa 0,0 l/m 13,0 km/h (3 Bft) SW 234 0 min 0 W/m 14,0 C 13,4 C 17,7 km/h (3 Bft)
17.10.2017 06:00 16,2 C 86 % 1016,6 hPa 0,0 l/m 14,2 km/h (3 Bft) S-SO 166 0 min 0 W/m 13,9 C 12,9 C 22,5 km/h (4 Bft)
17.10.2017 06:03 16,2 C 87 % 1016,6 hPa 0,0 l/m 13,4 km/h (3 Bft) S-SW 203 0 min 0 W/m 14,0 C 13,2 C 19,3 km/h (3 Bft)
17.10.2017 06:06 16,2 C 87 % 1016,6 hPa 0,0 l/m 13,0 km/h (3 Bft) W-SW 243 0 min 0 W/m 14,0 C 13,3 C 19,3 km/h (3 Bft)
17.10.2017 06:09 16,2 C 86 % 1016,5 hPa 0,0 l/m 15,0 km/h (3 Bft) SW 234 0 min 0 W/m 13,9 C 12,6 C 22,5 km/h (4 Bft)
17.10.2017 06:12 16,2 C 86 % 1016,6 hPa 0,0 l/m 12,5 km/h (2 Bft) S-SW 194 0 min 0 W/m 13,9 C 13,5 C 19,3 km/h (3 Bft)
17.10.2017 06:15 16,1 C 86 % 1016,5 hPa 0,0 l/m 14,0 km/h (3 Bft) S-SW 196 0 min 0 W/m 13,8 C 12,8 C 19,3 km/h (3 Bft)
17.10.2017 06:18 16,1 C 86 % 1016,5 hPa 0,0 l/m 13,3 km/h (3 Bft) SW 217 0 min 0 W/m 13,8 C 13,1 C 19,3 km/h (3 Bft)
17.10.2017 06:21 16,1 C 86 % 1016,5 hPa 0,0 l/m 14,5 km/h (3 Bft) SW 220 0 min 0 W/m 13,8 C 12,7 C 24,1 km/h (4 Bft)
17.10.2017 06:24 16,0 C 85 % 1016,6 hPa 0,0 l/m 13,4 km/h (3 Bft) S-SW 209 0 min 0 W/m 13,5 C 12,9 C 24,1 km/h (4 Bft)
17.10.2017 06:27 15,9 C 85 % 1016,5 hPa 0,0 l/m 15,1 km/h (3 Bft) SW 236 0 min 0 W/m 13,4 C 12,3 C 24,1 km/h (4 Bft)
17.10.2017 06:30 15,8 C 84 % 1016,6 hPa 0,0 l/m 14,4 km/h (3 Bft) SW 223 0 min 0 W/m 13,1 C 12,4 C 24,1 km/h (4 Bft)
17.10.2017 06:33 15,8 C 84 % 1016,6 hPa 0,0 l/m 15,5 km/h (3 Bft) SW 221 0 min 0 W/m 13,1 C 12,0 C 24,1 km/h (4 Bft)
17.10.2017 06:36 15,8 C 84 % 1016,5 hPa 0,0 l/m 14,6 km/h (3 Bft) S 191 0 min 0 W/m 13,1 C 12,3 C 24,1 km/h (4 Bft)
17.10.2017 06:39 15,8 C 84 % 1016,6 hPa 0,0 l/m 14,6 km/h (3 Bft) S-SW 198 0 min 0 W/m 13,1 C 12,3 C 25,7 km/h (4 Bft)
17.10.2017 06:42 15,7 C 83 % 1016,5 hPa 0,0 l/m 14,5 km/h (3 Bft) SW 225 0 min 0 W/m 12,8 C 12,2 C 20,9 km/h (4 Bft)
17.10.2017 06:45 15,7 C 83 % 1016,6 hPa 0,0 l/m 16,5 km/h (3 Bft) W-SW 244 0 min 0 W/m 12,8 C 11,6 C 24,1 km/h (4 Bft)
17.10.2017 06:48 15,6 C 82 % 1016,6 hPa 0,0 l/m 15,4 km/h (3 Bft) SW 233 0 min 0 W/m 12,5 C 11,8 C 22,5 km/h (4 Bft)
17.10.2017 06:51 15,6 C 82 % 1016,6 hPa 0,0 l/m 18,0 km/h (3 Bft) S-SW 209 0 min 0 W/m 12,5 C 11,0 C 25,7 km/h (4 Bft)
17.10.2017 06:54 15,5 C 80 % 1016,6 hPa 0,0 l/m 15,7 km/h (3 Bft) SW 222 0 min 0 W/m 12,1 C 11,6 C 22,5 km/h (4 Bft)
17.10.2017 06:57 15,5 C 80 % 1016,6 hPa 0,0 l/m 15,4 km/h (3 Bft) SW 225 0 min 0 W/m 12,1 C 11,7 C 24,1 km/h (4 Bft)
17.10.2017 07:00 15,4 C 80 % 1016,6 hPa 0,0 l/m 14,9 km/h (3 Bft) SW 221 0 min 0 W/m 12,0 C 11,7 C 22,5 km/h (4 Bft)
17.10.2017 07:03 15,4 C 80 % 1016,6 hPa 0,0 l/m 15,4 km/h (3 Bft) SW 236 0 min 0 W/m 12,0 C 11,5 C 22,5 km/h (4 Bft)
17.10.2017 07:06 15,4 C 80 % 1016,7 hPa 0,0 l/m 12,2 km/h (2 Bft) SW 217 0 min 0 W/m 12,0 C 12,7 C 20,9 km/h (4 Bft)
17.10.2017 07:09 15,4 C 80 % 1016,8 hPa 0,0 l/m 15,9 km/h (3 Bft) S-SW 202 0 min 0 W/m 12,0 C 11,4 C 24,1 km/h (4 Bft)
17.10.2017 07:12 15,4 C 80 % 1016,7 hPa 0,0 l/m 15,4 km/h (3 Bft) SW 223 0 min 0 W/m 12,0 C 11,5 C 22,5 km/h (4 Bft)
17.10.2017 07:15 15,3 C 80 % 1016,8 hPa 0,0 l/m 13,7 km/h (3 Bft) W-SW 246 0 min 0 W/m 11,9 C 12,0 C 20,9 km/h (4 Bft)
17.10.2017 07:18 15,3 C 80 % 1016,7 hPa 0,0 l/m 16,6 km/h (3 Bft) SW 223 0 min 0 W/m 11,9 C 11,1 C 24,1 km/h (4 Bft)
17.10.2017 07:21 15,3 C 80 % 1016,8 hPa 0,0 l/m 16,5 km/h (3 Bft) SW 228 0 min 0 W/m 11,9 C 11,1 C 25,7 km/h (4 Bft)
17.10.2017 07:24 15,2 C 80 % 1016,7 hPa 0,0 l/m 17,3 km/h (3 Bft) SW 217 0 min 0 W/m 11,8 C 10,7 C 27,4 km/h (5 Bft)
17.10.2017 07:27 15,2 C 80 % 1016,8 hPa 0,0 l/m 16,1 km/h (3 Bft) W-SW 240 0 min 0 W/m 11,8 C 11,1 C 24,1 km/h (4 Bft)
17.10.2017 07:30 15,2 C 80 % 1016,7 hPa 0,0 l/m 16,0 km/h (3 Bft) SW 230 0 min 0 W/m 11,8 C 11,1 C 25,7 km/h (4 Bft)
17.10.2017 07:33 15,1 C 80 % 1016,7 hPa 0,0 l/m 15,4 km/h (3 Bft) W-SW 240 0 min 0 W/m 11,7 C 11,2 C 22,5 km/h (4 Bft)
17.10.2017 07:36 15,1 C 80 % 1016,7 hPa 0,0 l/m 16,6 km/h (3 Bft) SW 224 0 min 0 W/m 11,7 C 10,8 C 24,1 km/h (4 Bft)
17.10.2017 07:39 15,1 C 80 % 1016,8 hPa 0,0 l/m 13,7 km/h (3 Bft) SW 221 0 min 0 W/m 11,7 C 11,8 C 19,3 km/h (3 Bft)
17.10.2017 07:42 15,1 C 80 % 1016,9 hPa 0,0 l/m 16,4 km/h (3 Bft) S-SW 203 0 min 0 W/m 11,7 C 10,9 C 22,5 km/h (4 Bft)
17.10.2017 07:45 15,0 C 80 % 1016,9 hPa 0,0 l/m 16,8 km/h (3 Bft) S-SW 211 0 min 0 W/m 11,6 C 10,6 C 24,1 km/h (4 Bft)
17.10.2017 07:48 15,0 C 80 % 1017,0 hPa 0,0 l/m 16,0 km/h (3 Bft) S-SW 203 0 min 0 W/m 11,6 C 10,9 C 22,5 km/h (4 Bft)
17.10.2017 07:51 14,9 C 80 % 1017,1 hPa 0,0 l/m 15,8 km/h (3 Bft) SW 216 0 min 0 W/m 11,5 C 10,8 C 19,3 km/h (3 Bft)
17.10.2017 07:54 14,9 C 80 % 1017,1 hPa 0,0 l/m 16,6 km/h (3 Bft) SW 225 0 min 0 W/m 11,5 C 10,6 C 25,7 km/h (4 Bft)
17.10.2017 07:57 14,9 C 80 % 1017,1 hPa 0,0 l/m 15,7 km/h (3 Bft) SW 227 0 min 0 W/m 11,5 C 10,8 C 24,1 km/h (4 Bft)
17.10.2017 08:00 14,8 C 81 % 1017,1 hPa 0,0 l/m 15,0 km/h (3 Bft) SW 220 0 min 0 W/m 11,6 C 10,9 C 24,1 km/h (4 Bft)
17.10.2017 08:03 14,8 C 81 % 1017,1 hPa 0,0 l/m 15,8 km/h (3 Bft) SW 232 0 min 0 W/m 11,6 C 10,7 C 27,4 km/h (5 Bft)
17.10.2017 08:06 14,7 C 81 % 1017,1 hPa 0,0 l/m 14,0 km/h (3 Bft) SW 220 0 min 0 W/m 11,5 C 11,2 C 25,7 km/h (4 Bft)
17.10.2017 08:09 14,7 C 81 % 1017,2 hPa 0,0 l/m 13,6 km/h (3 Bft) S-SW 202 0 min 0 W/m 11,5 C 11,3 C 20,9 km/h (4 Bft)
17.10.2017 08:12 14,7 C 81 % 1017,2 hPa 0,0 l/m 13,1 km/h (3 Bft) W-SW 240 0 min 0 W/m 11,5 C 11,5 C 20,9 km/h (4 Bft)
17.10.2017 08:15 14,6 C 81 % 1017,3 hPa 0,0 l/m 14,2 km/h (3 Bft) S-SW 213 0 min 5 W/m 11,4 C 11,0 C 24,1 km/h (4 Bft)
17.10.2017 08:18 14,6 C 81 % 1017,3 hPa 0,0 l/m 14,0 km/h (3 Bft) S-SW 213 0 min 5 W/m 11,4 C 11,1 C 20,9 km/h (4 Bft)
17.10.2017 08:21 14,6 C 81 % 1017,3 hPa 0,0 l/m 15,1 km/h (3 Bft) S-SW 213 0 min 5 W/m 11,4 C 10,7 C 24,1 km/h (4 Bft)
17.10.2017 08:24 14,6 C 82 % 1017,3 hPa 0,0 l/m 15,0 km/h (3 Bft) SW 215 0 min 5 W/m 11,6 C 10,7 C 22,5 km/h (4 Bft)
17.10.2017 08:27 14,5 C 82 % 1017,4 hPa 0,0 l/m 16,2 km/h (3 Bft) S 176 0 min 5 W/m 11,5 C 10,2 C 27,4 km/h (5 Bft)
17.10.2017 08:30 14,4 C 82 % 1017,4 hPa 0,0 l/m 15,8 km/h (3 Bft) SW 227 0 min 5 W/m 11,4 C 10,2 C 22,5 km/h (4 Bft)
17.10.2017 08:33 14,4 C 82 % 1017,3 hPa 0,0 l/m 17,8 km/h (3 Bft) SW 219 0 min 5 W/m 11,4 C 9,6 C 24,1 km/h (4 Bft)
17.10.2017 08:36 14,4 C 83 % 1017,4 hPa 0,0 l/m 13,4 km/h (3 Bft) SW 231 0 min 5 W/m 11,5 C 11,0 C 20,9 km/h (4 Bft)
17.10.2017 08:39 14,4 C 83 % 1017,3 hPa 0,0 l/m 15,6 km/h (3 Bft) SW 234 0 min 7 W/m 11,5 C 10,3 C 25,7 km/h (4 Bft)
17.10.2017 08:42 14,4 C 83 % 1017,3 hPa 0,0 l/m 17,7 km/h (3 Bft) SW 227 0 min 7 W/m 11,5 C 9,6 C 24,1 km/h (4 Bft)
17.10.2017 08:45 14,3 C 83 % 1017,3 hPa 0,0 l/m 16,8 km/h (3 Bft) SW 221 0 min 7 W/m 11,5 C 9,8 C 24,1 km/h (4 Bft)
17.10.2017 08:48 14,3 C 83 % 1017,4 hPa 0,0 l/m 15,7 km/h (3 Bft) S 190 0 min 9 W/m 11,5 C 10,1 C 24,1 km/h (4 Bft)
17.10.2017 08:51 14,3 C 83 % 1017,4 hPa 0,0 l/m 13,5 km/h (3 Bft) W-SW 240 0 min 11 W/m 11,5 C 10,9 C 19,3 km/h (3 Bft)
17.10.2017 08:54 14,3 C 83 % 1017,5 hPa 0,0 l/m 14,0 km/h (3 Bft) SW 226 0 min 12 W/m 11,5 C 10,7 C 22,5 km/h (4 Bft)
17.10.2017 08:57 14,3 C 84 % 1017,4 hPa 0,0 l/m 13,4 km/h (3 Bft) S-SW 213 0 min 14 W/m 11,6 C 10,9 C 22,5 km/h (4 Bft)
17.10.2017 09:00 14,2 C 84 % 1017,4 hPa 0,0 l/m 13,6 km/h (3 Bft) SW 232 0 min 16 W/m 11,5 C 10,7 C 22,5 km/h (4 Bft)
17.10.2017 09:03 14,2 C 84 % 1017,4 hPa 0,0 l/m 14,2 km/h (3 Bft) SW 225 0 min 18 W/m 11,5 C 10,5 C 27,4 km/h (5 Bft)
17.10.2017 09:06 14,2 C 84 % 1017,4 hPa 0,0 l/m 16,9 km/h (3 Bft) SW 219 0 min 21 W/m 11,5 C 9,6 C 24,1 km/h (4 Bft)
17.10.2017 09:09 14,2 C 84 % 1017,5 hPa 0,0 l/m 16,0 km/h (3 Bft) SW 221 0 min 19 W/m 11,5 C 9,9 C 25,7 km/h (4 Bft)
17.10.2017 09:12 14,2 C 84 % 1017,5 hPa 0,0 l/m 16,3 km/h (3 Bft) SW 227 0 min 19 W/m 11,5 C 9,8 C 24,1 km/h (4 Bft)
17.10.2017 09:15 14,2 C 84 % 1017,5 hPa 0,0 l/m 14,6 km/h (3 Bft) SW 217 0 min 21 W/m 11,5 C 10,4 C 22,5 km/h (4 Bft)
17.10.2017 09:18 14,1 C 84 % 1017,5 hPa 0,0 l/m 17,1 km/h (3 Bft) SW 230 0 min 26 W/m 11,4 C 9,4 C 25,7 km/h (4 Bft)
17.10.2017 09:21 14,2 C 84 % 1017,5 hPa 0,0 l/m 16,5 km/h (3 Bft) SW 223 0 min 28 W/m 11,5 C 9,7 C 24,1 km/h (4 Bft)
17.10.2017 09:24 14,1 C 84 % 1017,5 hPa 0,0 l/m 15,9 km/h (3 Bft) SW 229 0 min 28 W/m 11,4 C 9,8 C 24,1 km/h (4 Bft)
17.10.2017 09:27 14,1 C 84 % 1017,5 hPa 0,0 l/m 14,6 km/h (3 Bft) SW 223 0 min 30 W/m 11,4 C 10,2 C 20,9 km/h (4 Bft)
17.10.2017 09:30 14,1 C 85 % 1017,5 hPa 0,0 l/m 14,5 km/h (3 Bft) S-SW 205 0 min 35 W/m 11,6 C 10,3 C 19,3 km/h (3 Bft)
17.10.2017 09:33 14,1 C 85 % 1017,5 hPa 0,0 l/m 16,7 km/h (3 Bft) SW 229 0 min 39 W/m 11,6 C 9,5 C 25,7 km/h (4 Bft)
17.10.2017 09:36 14,1 C 85 % 1017,6 hPa 0,0 l/m 15,8 km/h (3 Bft) SW 236 0 min 42 W/m 11,6 C 9,8 C 24,1 km/h (4 Bft)
17.10.2017 09:39 14,1 C 85 % 1017,6 hPa 0,0 l/m 13,9 km/h (3 Bft) SW 227 0 min 46 W/m 11,6 C 10,5 C 22,5 km/h (4 Bft)
17.10.2017 09:42 14,1 C 85 % 1017,6 hPa 0,0 l/m 17,7 km/h (3 Bft) S-SW 207 0 min 51 W/m 11,6 C 9,2 C 24,1 km/h (4 Bft)
17.10.2017 09:45 14,1 C 85 % 1017,5 hPa 0,0 l/m 15,5 km/h (3 Bft) SW 227 0 min 51 W/m 11,6 C 9,9 C 24,1 km/h (4 Bft)
17.10.2017 09:48 14,2 C 85 % 1017,5 hPa 0,0 l/m 17,0 km/h (3 Bft) SW 234 0 min 56 W/m 11,7 C 9,6 C 25,7 km/h (4 Bft)
17.10.2017 09:51 14,2 C 85 % 1017,5 hPa 0,0 l/m 12,5 km/h (2 Bft) SW 216 0 min 63 W/m 11,7 C 11,1 C 20,9 km/h (4 Bft)
17.10.2017 09:54 14,2 C 85 % 1017,6 hPa 0,0 l/m 13,2 km/h (3 Bft) W-SW 240 0 min 72 W/m 11,7 C 10,9 C 19,3 km/h (3 Bft)
17.10.2017 09:57 14,2 C 85 % 1017,7 hPa 0,0 l/m 12,6 km/h (3 Bft) S-SW 197 0 min 70 W/m 11,7 C 11,1 C 17,7 km/h (3 Bft)
17.10.2017 10:00 14,2 C 86 % 1017,8 hPa 0,0 l/m 15,7 km/h (3 Bft) S-SW 207 0 min 69 W/m 11,9 C 10,0 C 25,7 km/h (4 Bft)
17.10.2017 10:03 14,2 C 86 % 1017,8 hPa 0,0 l/m 16,4 km/h (3 Bft) W 260 0 min 74 W/m 11,9 C 9,8 C 24,1 km/h (4 Bft)
17.10.2017 10:06 14,2 C 86 % 1017,8 hPa 0,0 l/m 16,7 km/h (3 Bft) S-SW 203 0 min 79 W/m 11,9 C 9,7 C 24,1 km/h (4 Bft)
17.10.2017 10:09 14,2 C 86 % 1017,7 hPa 0,0 l/m 17,9 km/h (3 Bft) SW 224 0 min 77 W/m 11,9 C 9,3 C 25,7 km/h (4 Bft)
17.10.2017 10:12 14,2 C 86 % 1017,7 hPa 0,0 l/m 16,0 km/h (3 Bft) SW 226 0 min 76 W/m 11,9 C 9,9 C 25,7 km/h (4 Bft)
17.10.2017 10:15 14,2 C 86 % 1017,8 hPa 0,0 l/m 16,6 km/h (3 Bft) SW 224 0 min 77 W/m 11,9 C 9,7 C 24,1 km/h (4 Bft)
17.10.2017 10:18 14,2 C 85 % 1017,7 hPa 0,0 l/m 16,5 km/h (3 Bft) SW 229 0 min 81 W/m 11,7 C 9,7 C 24,1 km/h (4 Bft)
17.10.2017 10:21 14,3 C 85 % 1017,7 hPa 0,0 l/m 17,4 km/h (3 Bft) W-SW 248 0 min 86 W/m 11,8 C 9,6 C 25,7 km/h (4 Bft)
17.10.2017 10:24 14,3 C 85 % 1017,7 hPa 0,0 l/m 17,3 km/h (3 Bft) SW 217 0 min 91 W/m 11,8 C 9,6 C 24,1 km/h (4 Bft)
17.10.2017 10:27 14,3 C 85 % 1017,7 hPa 0,0 l/m 17,4 km/h (3 Bft) SW 227 0 min 100 W/m 11,8 C 9,6 C 25,7 km/h (4 Bft)
17.10.2017 10:30 14,3 C 85 % 1017,7 hPa 0,0 l/m 18,8 km/h (3 Bft) SW 235 0 min 102 W/m 11,8 C 9,2 C 33,8 km/h (5 Bft)
17.10.2017 10:33 14,3 C 85 % 1017,7 hPa 0,0 l/m 19,6 km/h (3 Bft) SW 217 0 min 107 W/m 11,8 C 8,9 C 27,4 km/h (5 Bft)
17.10.2017 10:36 14,3 C 85 % 1017,6 hPa 0,0 l/m 18,2 km/h (3 Bft) S-SW 209 0 min 113 W/m 11,8 C 9,3 C 29,0 km/h (5 Bft)
17.10.2017 10:39 14,3 C 85 % 1017,6 hPa 0,0 l/m 18,1 km/h (3 Bft) SW 223 0 min 114 W/m 11,8 C 9,4 C 29,0 km/h (5 Bft)
17.10.2017 10:42 14,4 C 85 % 1017,6 hPa 0,0 l/m 19,1 km/h (3 Bft) S-SW 208 0 min 121 W/m 11,9 C 9,2 C 27,4 km/h (5 Bft)
17.10.2017 10:45 14,4 C 85 % 1017,6 hPa 0,0 l/m 17,4 km/h (3 Bft) W-SW 248 0 min 127 W/m 11,9 C 9,7 C 27,4 km/h (5 Bft)
17.10.2017 10:48 14,4 C 85 % 1017,6 hPa 0,0 l/m 18,5 km/h (3 Bft) SW 215 0 min 141 W/m 11,9 C 9,4 C 25,7 km/h (4 Bft)
17.10.2017 10:51 14,4 C 85 % 1017,7 hPa 0,0 l/m 17,5 km/h (3 Bft) SW 220 0 min 149 W/m 11,9 C 9,7 C 27,4 km/h (5 Bft)
17.10.2017 10:54 14,4 C 85 % 1017,8 hPa 0,0 l/m 16,7 km/h (3 Bft) SW 221 0 min 144 W/m 11,9 C 9,9 C 24,1 km/h (4 Bft)
17.10.2017 10:57 14,5 C 85 % 1017,8 hPa 0,0 l/m 16,2 km/h (3 Bft) SW 222 0 min 158 W/m 12,0 C 10,2 C 29,0 km/h (5 Bft)
17.10.2017 11:00 14,5 C 85 % 1017,8 hPa 0,0 l/m 18,5 km/h (3 Bft) W-SW 243 0 min 156 W/m 12,0 C 9,5 C 29,0 km/h (5 Bft)
17.10.2017 11:03 14,6 C 85 % 1017,8 hPa 0,0 l/m 18,6 km/h (3 Bft) S-SW 194 0 min 151 W/m 12,1 C 9,6 C 30,6 km/h (5 Bft)
17.10.2017 11:06 14,6 C 84 % 1017,7 hPa 0,0 l/m 20,9 km/h (4 Bft) SW 233 0 min 148 W/m 11,9 C 9,0 C 35,4 km/h (5 Bft)
17.10.2017 11:09 14,6 C 84 % 1017,8 hPa 0,0 l/m 17,7 km/h (3 Bft) W 262 0 min 142 W/m 11,9 C 9,9 C 25,7 km/h (4 Bft)
17.10.2017 11:12 14,6 C 84 % 1017,7 hPa 0,0 l/m 16,9 km/h (3 Bft) W-SW 246 0 min 144 W/m 11,9 C 10,1 C 25,7 km/h (4 Bft)
17.10.2017 11:15 14,6 C 84 % 1017,8 hPa 0,0 l/m 20,1 km/h (4 Bft) SW 236 0 min 155 W/m 11,9 C 9,2 C 29,0 km/h (5 Bft)
17.10.2017 11:18 14,6 C 84 % 1017,7 hPa 0,0 l/m 19,7 km/h (3 Bft) SW 233 0 min 156 W/m 11,9 C 9,3 C 30,6 km/h (5 Bft)
17.10.2017 11:21 14,6 C 84 % 1017,7 hPa 0,0 l/m 20,4 km/h (4 Bft) SW 227 0 min 156 W/m 11,9 C 9,1 C 32,2 km/h (5 Bft)
17.10.2017 11:24 14,7 C 84 % 1017,8 hPa 0,0 l/m 17,0 km/h (3 Bft) S-SW 212 0 min 176 W/m 12,0 C 10,2 C 27,4 km/h (5 Bft)
17.10.2017 11:27 14,7 C 84 % 1017,8 hPa 0,0 l/m 17,2 km/h (3 Bft) S-SW 202 0 min 185 W/m 12,0 C 10,1 C 27,4 km/h (5 Bft)
17.10.2017 11:30 14,7 C 84 % 1017,8 hPa 0,0 l/m 19,7 km/h (3 Bft) SW 226 0 min 178 W/m 12,0 C 9,4 C 29,0 km/h (5 Bft)
17.10.2017 11:33 14,8 C 83 % 1017,8 hPa 0,0 l/m 19,0 km/h (3 Bft) SW 222 0 min 167 W/m 11,9 C 9,8 C 27,4 km/h (5 Bft)
17.10.2017 11:36 14,7 C 83 % 1017,8 hPa 0,0 l/m 21,2 km/h (4 Bft) W-SW 238 0 min 176 W/m 11,8 C 9,1 C 30,6 km/h (5 Bft)
17.10.2017 11:39 14,8 C 83 % 1017,7 hPa 0,0 l/m 20,1 km/h (4 Bft) S-SW 202 0 min 174 W/m 11,9 C 9,5 C 32,2 km/h (5 Bft)
17.10.2017 11:42 14,8 C 83 % 1017,7 hPa 0,0 l/m 18,8 km/h (3 Bft) SW 225 0 min 171 W/m 11,9 C 9,8 C 25,7 km/h (4 Bft)
17.10.2017 11:45 14,8 C 83 % 1017,8 hPa 0,0 l/m 20,3 km/h (4 Bft) SW 215 0 min 171 W/m 11,9 C 9,4 C 33,8 km/h (5 Bft)
17.10.2017 11:48 14,8 C 83 % 1017,7 hPa 0,0 l/m 22,3 km/h (4 Bft) SW 223 0 min 169 W/m 11,9 C 8,9 C 32,2 km/h (5 Bft)
17.10.2017 11:51 14,8 C 83 % 1017,8 hPa 0,0 l/m 20,3 km/h (4 Bft) SW 220 0 min 179 W/m 11,9 C 9,4 C 30,6 km/h (5 Bft)
17.10.2017 11:54 14,8 C 83 % 1017,7 hPa 0,0 l/m 20,6 km/h (4 Bft) S-SW 199 0 min 199 W/m 11,9 C 9,3 C 30,6 km/h (5 Bft)
17.10.2017 11:57 14,9 C 83 % 1017,7 hPa 0,0 l/m 17,1 km/h (3 Bft) W-SW 244 0 min 206 W/m 12,0 C 10,4 C 29,0 km/h (5 Bft)
17.10.2017 12:00 14,9 C 83 % 1017,8 hPa 0,0 l/m 18,7 km/h (3 Bft) SW 229 0 min 211 W/m 12,0 C 10,0 C 25,7 km/h (4 Bft)
17.10.2017 12:03 15,0 C 82 % 1017,7 hPa 0,0 l/m 20,1 km/h (4 Bft) W 275 0 min 200 W/m 12,0 C 9,7 C 29,0 km/h (5 Bft)
17.10.2017 12:06 15,0 C 82 % 1017,7 hPa 0,0 l/m 22,5 km/h (4 Bft) SW 236 0 min 204 W/m 12,0 C 9,1 C 29,0 km/h (5 Bft)
17.10.2017 12:09 15,1 C 82 % 1017,5 hPa 0,0 l/m 21,3 km/h (4 Bft) SW 222 0 min 200 W/m 12,0 C 9,6 C 32,2 km/h (5 Bft)
17.10.2017 12:12 15,1 C 82 % 1017,5 hPa 0,0 l/m 20,1 km/h (4 Bft) SW 234 0 min 206 W/m 12,0 C 9,9 C 32,2 km/h (5 Bft)
17.10.2017 12:15 15,1 C 82 % 1017,6 hPa 0,0 l/m 20,0 km/h (4 Bft) W-SW 251 0 min 221 W/m 12,0 C 9,9 C 29,0 km/h (5 Bft)
17.10.2017 12:18 15,1 C 82 % 1017,6 hPa 0,0 l/m 21,2 km/h (4 Bft) SW 228 3 min 243 W/m 12,0 C 9,6 C 35,4 km/h (5 Bft)
17.10.2017 12:21 15,2 C 82 % 1017,5 hPa 0,0 l/m 19,8 km/h (3 Bft) W-SW 248 3 min 243 W/m 12,1 C 10,1 C 27,4 km/h (5 Bft)
17.10.2017 12:24 15,2 C 82 % 1017,6 hPa 0,0 l/m 20,1 km/h (4 Bft) S-SW 212 3 min 255 W/m 12,1 C 10,0 C 27,4 km/h (5 Bft)
17.10.2017 12:27 15,3 C 81 % 1017,6 hPa 0,0 l/m 23,6 km/h (4 Bft) S-SW 209 3 min 253 W/m 12,1 C 9,3 C 37,0 km/h (5 Bft)
17.10.2017 12:30 15,3 C 81 % 1017,6 hPa 0,0 l/m 22,2 km/h (4 Bft) SW 220 3 min 248 W/m 12,1 C 9,6 C 29,0 km/h (5 Bft)
17.10.2017 12:33 15,3 C 81 % 1017,6 hPa 0,0 l/m 20,6 km/h (4 Bft) SW 221 0 min 243 W/m 12,1 C 10,0 C 35,4 km/h (5 Bft)
17.10.2017 12:36 15,3 C 81 % 1017,6 hPa 0,0 l/m 20,2 km/h (4 Bft) SW 216 0 min 230 W/m 12,1 C 10,1 C 30,6 km/h (5 Bft)
17.10.2017 12:39 15,3 C 80 % 1017,6 hPa 0,0 l/m 22,0 km/h (4 Bft) S-SW 210 0 min 227 W/m 11,9 C 9,7 C 33,8 km/h (5 Bft)
17.10.2017 12:42 15,3 C 81 % 1017,5 hPa 0,0 l/m 22,1 km/h (4 Bft) W 259 0 min 213 W/m 12,1 C 9,6 C 30,6 km/h (5 Bft)
17.10.2017 12:45 15,3 C 80 % 1017,5 hPa 0,0 l/m 24,3 km/h (4 Bft) S-SW 210 0 min 209 W/m 11,9 C 9,2 C 35,4 km/h (5 Bft)
17.10.2017 12:48 15,3 C 80 % 1017,5 hPa 0,0 l/m 21,9 km/h (4 Bft) SW 222 0 min 214 W/m 11,9 C 9,7 C 32,2 km/h (5 Bft)
17.10.2017 12:51 15,3 C 81 % 1017,6 hPa 0,0 l/m 19,2 km/h (3 Bft) W-SW 240 0 min 209 W/m 12,1 C 10,3 C 30,6 km/h (5 Bft)
17.10.2017 12:54 15,3 C 81 % 1017,6 hPa 0,0 l/m 17,8 km/h (3 Bft) SW 229 0 min 204 W/m 12,1 C 10,7 C 30,6 km/h (5 Bft)
17.10.2017 12:57 15,3 C 81 % 1017,5 hPa 0,0 l/m 20,5 km/h (4 Bft) SW 222 0 min 200 W/m 12,1 C 10,0 C 37,0 km/h (5 Bft)
17.10.2017 13:00 15,3 C 81 % 1017,5 hPa 0,0 l/m 18,7 km/h (3 Bft) S-SW 205 0 min 211 W/m 12,1 C 10,5 C 27,4 km/h (5 Bft)
17.10.2017 13:03 15,3 C 81 % 1017,6 hPa 0,0 l/m 18,7 km/h (3 Bft) SW 224 0 min 220 W/m 12,1 C 10,5 C 30,6 km/h (5 Bft)
17.10.2017 13:06 15,4 C 81 % 1017,6 hPa 0,0 l/m 19,3 km/h (3 Bft) SW 217 0 min 225 W/m 12,2 C 10,4 C 25,7 km/h (4 Bft)
17.10.2017 13:09 15,4 C 81 % 1017,5 hPa 0,0 l/m 18,8 km/h (3 Bft) S 186 0 min 230 W/m 12,2 C 10,6 C 27,4 km/h (5 Bft)
17.10.2017 13:12 15,4 C 82 % 1017,6 hPa 0,0 l/m 18,4 km/h (3 Bft) S-SW 207 0 min 221 W/m 12,3 C 10,7 C 29,0 km/h (5 Bft)
17.10.2017 13:15 15,4 C 81 % 1017,5 hPa 0,0 l/m 19,3 km/h (3 Bft) S-SW 210 0 min 241 W/m 12,2 C 10,4 C 29,0 km/h (5 Bft)
17.10.2017 13:18 15,6 C 82 % 1017,6 hPa 0,0 l/m 15,8 km/h (3 Bft) W-SW 238 0 min 243 W/m 12,5 C 11,7 C 24,1 km/h (4 Bft)
17.10.2017 13:21 15,6 C 81 % 1017,5 hPa 0,0 l/m 19,4 km/h (3 Bft) SW 234 0 min 236 W/m 12,3 C 10,7 C 33,8 km/h (5 Bft)
17.10.2017 13:24 15,6 C 80 % 1017,5 hPa 0,0 l/m 15,3 km/h (3 Bft) SW 215 0 min 225 W/m 12,2 C 11,8 C 22,5 km/h (4 Bft)
17.10.2017 13:27 15,6 C 80 % 1017,5 hPa 0,0 l/m 17,8 km/h (3 Bft) SW 233 0 min 239 W/m 12,2 C 11,1 C 29,0 km/h (5 Bft)
17.10.2017 13:30 15,6 C 79 % 1017,5 hPa 0,0 l/m 17,6 km/h (3 Bft) SW 217 0 min 246 W/m 12,0 C 11,1 C 32,2 km/h (5 Bft)
17.10.2017 13:33 15,6 C 79 % 1017,5 hPa 0,0 l/m 19,0 km/h (3 Bft) SW 216 0 min 223 W/m 12,0 C 10,8 C 29,0 km/h (5 Bft)
17.10.2017 13:36 15,6 C 79 % 1017,4 hPa 0,0 l/m 17,8 km/h (3 Bft) S-SW 205 0 min 220 W/m 12,0 C 11,1 C 29,0 km/h (5 Bft)
17.10.2017 13:39 15,5 C 80 % 1017,3 hPa 0,0 l/m 20,2 km/h (4 Bft) SW 235 0 min 227 W/m 12,1 C 10,3 C 32,2 km/h (5 Bft)
17.10.2017 13:42 15,5 C 79 % 1017,2 hPa 0,0 l/m 19,3 km/h (3 Bft) S-SW 203 0 min 221 W/m 11,9 C 10,6 C 29,0 km/h (5 Bft)
17.10.2017 13:45 15,5 C 78 % 1017,1 hPa 0,0 l/m 21,4 km/h (4 Bft) W-SW 244 0 min 241 W/m 11,7 C 10,1 C 32,2 km/h (5 Bft)
17.10.2017 13:48 15,5 C 79 % 1017,2 hPa 0,0 l/m 20,9 km/h (4 Bft) W-SW 238 0 min 232 W/m 11,9 C 10,2 C 32,2 km/h (5 Bft)
17.10.2017 13:51 15,6 C 79 % 1017,1 hPa 0,0 l/m 17,3 km/h (3 Bft) SW 236 0 min 221 W/m 12,0 C 11,2 C 25,7 km/h (4 Bft)
17.10.2017 13:54 15,6 C 79 % 1017,1 hPa 0,0 l/m 19,4 km/h (3 Bft) SW 219 0 min 232 W/m 12,0 C 10,7 C 38,6 km/h (6 Bft)
17.10.2017 13:57 15,5 C 78 % 1017,1 hPa 0,0 l/m 20,9 km/h (4 Bft) SW 221 0 min 218 W/m 11,7 C 10,2 C 30,6 km/h (5 Bft)
17.10.2017 14:00 15,5 C 79 % 1017,1 hPa 0,0 l/m 18,5 km/h (3 Bft) SW 224 0 min 214 W/m 11,9 C 10,8 C 25,7 km/h (4 Bft)
17.10.2017 14:03 15,6 C 79 % 1017,1 hPa 0,0 l/m 18,0 km/h (3 Bft) SW 223 0 min 221 W/m 12,0 C 11,0 C 33,8 km/h (5 Bft)
17.10.2017 14:06 15,6 C 79 % 1017,1 hPa 0,0 l/m 16,5 km/h (3 Bft) SW 224 0 min 207 W/m 12,0 C 11,5 C 22,5 km/h (4 Bft)
17.10.2017 14:09 15,6 C 79 % 1017,1 hPa 0,0 l/m 16,6 km/h (3 Bft) S-SW 206 0 min 188 W/m 12,0 C 11,4 C 24,1 km/h (4 Bft)
17.10.2017 14:12 15,6 C 79 % 1017,0 hPa 0,0 l/m 14,0 km/h (3 Bft) S-SW 196 0 min 199 W/m 12,0 C 12,2 C 25,7 km/h (4 Bft)
17.10.2017 14:15 15,6 C 79 % 1017,0 hPa 0,0 l/m 15,6 km/h (3 Bft) SW 215 0 min 190 W/m 12,0 C 11,7 C 25,7 km/h (4 Bft)
17.10.2017 14:18 15,6 C 79 % 1016,9 hPa 0,0 l/m 17,9 km/h (3 Bft) S-SW 209 0 min 169 W/m 12,0 C 11,1 C 24,1 km/h (4 Bft)
17.10.2017 14:21 15,5 C 79 % 1016,9 hPa 0,0 l/m 18,1 km/h (3 Bft) S-SW 210 0 min 171 W/m 11,9 C 10,9 C 25,7 km/h (4 Bft)
17.10.2017 14:24 15,4 C 79 % 1016,9 hPa 0,0 l/m 17,0 km/h (3 Bft) SW 215 0 min 171 W/m 11,8 C 11,1 C 25,7 km/h (4 Bft)
17.10.2017 14:27 15,4 C 80 % 1017,0 hPa 0,0 l/m 15,2 km/h (3 Bft) S-SW 206 0 min 171 W/m 12,0 C 11,6 C 22,5 km/h (4 Bft)
17.10.2017 14:30 15,4 C 80 % 1017,0 hPa 0,0 l/m 14,3 km/h (3 Bft) SW 222 0 min 185 W/m 12,0 C 11,9 C 20,9 km/h (4 Bft)
17.10.2017 14:33 15,4 C 79 % 1016,9 hPa 0,0 l/m 18,3 km/h (3 Bft) S-SW 204 0 min 190 W/m 11,8 C 10,7 C 27,4 km/h (5 Bft)
17.10.2017 14:36 15,5 C 79 % 1016,9 hPa 0,0 l/m 16,5 km/h (3 Bft) SW 223 0 min 186 W/m 11,9 C 11,3 C 20,9 km/h (4 Bft)
17.10.2017 14:39 15,5 C 79 % 1016,9 hPa 0,0 l/m 16,1 km/h (3 Bft) S-SW 211 0 min 185 W/m 11,9 C 11,5 C 22,5 km/h (4 Bft)
17.10.2017 14:42 15,5 C 79 % 1016,9 hPa 0,0 l/m 14,7 km/h (3 Bft) SW 215 0 min 190 W/m 11,9 C 11,9 C 24,1 km/h (4 Bft)
17.10.2017 14:45 15,5 C 79 % 1016,9 hPa 0,0 l/m 15,8 km/h (3 Bft) SW 231 0 min 185 W/m 11,9 C 11,5 C 22,5 km/h (4 Bft)
17.10.2017 14:48 15,6 C 79 % 1016,8 hPa 0,0 l/m 15,7 km/h (3 Bft) S-SW 200 0 min 186 W/m 12,0 C 11,7 C 27,4 km/h (5 Bft)
17.10.2017 14:51 15,5 C 78 % 1016,9 hPa 0,0 l/m 17,2 km/h (3 Bft) W-SW 247 0 min 192 W/m 11,7 C 11,1 C 25,7 km/h (4 Bft)
17.10.2017 14:54 15,5 C 79 % 1016,9 hPa 0,0 l/m 15,3 km/h (3 Bft) SW 228 0 min 186 W/m 11,9 C 11,7 C 25,7 km/h (4 Bft)
17.10.2017 14:57 15,5 C 79 % 1016,9 hPa 0,0 l/m 18,1 km/h (3 Bft) SW 233 0 min 185 W/m 11,9 C 10,9 C 25,7 km/h (4 Bft)
17.10.2017 15:00 15,5 C 79 % 1016,8 hPa 0,0 l/m 17,8 km/h (3 Bft) W-SW 240 0 min 178 W/m 11,9 C 11,0 C 29,0 km/h (5 Bft)
17.10.2017 15:03 15,5 C 79 % 1016,8 hPa 0,0 l/m 17,2 km/h (3 Bft) S-SW 210 0 min 174 W/m 11,9 C 11,1 C 25,7 km/h (4 Bft)
17.10.2017 15:06 15,5 C 79 % 1016,8 hPa 0,0 l/m 16,7 km/h (3 Bft) W-SW 238 0 min 179 W/m 11,9 C 11,3 C 27,4 km/h (5 Bft)
17.10.2017 15:09 15,5 C 79 % 1016,7 hPa 0,0 l/m 17,3 km/h (3 Bft) SW 225 0 min 158 W/m 11,9 C 11,1 C 25,7 km/h (4 Bft)
17.10.2017 15:12 15,4 C 79 % 1016,8 hPa 0,0 l/m 16,6 km/h (3 Bft) SW 227 0 min 146 W/m 11,8 C 11,2 C 25,7 km/h (4 Bft)
17.10.2017 15:15 15,4 C 80 % 1016,8 hPa 0,0 l/m 14,5 km/h (3 Bft) SW 215 0 min 137 W/m 12,0 C 11,8 C 19,3 km/h (3 Bft)
17.10.2017 15:18 15,4 C 80 % 1016,7 hPa 0,0 l/m 17,0 km/h (3 Bft) SW 234 0 min 128 W/m 12,0 C 11,1 C 24,1 km/h (4 Bft)
17.10.2017 15:21 15,4 C 80 % 1016,7 hPa 0,0 l/m 13,7 km/h (3 Bft) SW 215 0 min 123 W/m 12,0 C 12,1 C 19,3 km/h (3 Bft)
17.10.2017 15:24 15,3 C 80 % 1016,7 hPa 0,0 l/m 17,4 km/h (3 Bft) W-SW 246 0 min 120 W/m 11,9 C 10,8 C 25,7 km/h (4 Bft)
17.10.2017 15:27 15,3 C 80 % 1016,7 hPa 0,0 l/m 16,6 km/h (3 Bft) W-SW 252 0 min 116 W/m 11,9 C 11,1 C 27,4 km/h (5 Bft)
17.10.2017 15:30 15,3 C 80 % 1016,6 hPa 0,0 l/m 15,3 km/h (3 Bft) SW 231 0 min 113 W/m 11,9 C 11,5 C 22,5 km/h (4 Bft)
17.10.2017 15:33 15,2 C 81 % 1016,6 hPa 0,0 l/m 13,0 km/h (3 Bft) W-SW 242 0 min 113 W/m 12,0 C 12,1 C 20,9 km/h (4 Bft)
17.10.2017 15:36 15,2 C 81 % 1016,6 hPa 0,0 l/m 12,9 km/h (3 Bft) S 171 0 min 116 W/m 12,0 C 12,2 C 20,9 km/h (4 Bft)
17.10.2017 15:39 15,2 C 82 % 1016,6 hPa 0,0 l/m 15,9 km/h (3 Bft) S-SW 209 0 min 113 W/m 12,1 C 11,1 C 24,1 km/h (4 Bft)
17.10.2017 15:42 15,2 C 82 % 1016,6 hPa 0,0 l/m 15,0 km/h (3 Bft) S-SW 205 0 min 113 W/m 12,1 C 11,4 C 22,5 km/h (4 Bft)
17.10.2017 15:45 15,2 C 82 % 1016,6 hPa 0,0 l/m 15,9 km/h (3 Bft) W-SW 242 0 min 114 W/m 12,1 C 11,1 C 25,7 km/h (4 Bft)
17.10.2017 15:48 15,2 C 82 % 1016,6 hPa 0,0 l/m 16,3 km/h (3 Bft) SW 229 0 min 113 W/m 12,1 C 11,0 C 24,1 km/h (4 Bft)
17.10.2017 15:51 15,1 C 82 % 1016,5 hPa 0,0 l/m 14,5 km/h (3 Bft) SW 228 0 min 104 W/m 12,0 C 11,5 C 22,5 km/h (4 Bft)
17.10.2017 15:54 15,1 C 82 % 1016,6 hPa 0,0 l/m 15,2 km/h (3 Bft) SW 218 0 min 100 W/m 12,0 C 11,2 C 25,7 km/h (4 Bft)
17.10.2017 15:57 15,1 C 82 % 1016,6 hPa 0,0 l/m 15,0 km/h (3 Bft) SW 225 0 min 95 W/m 12,0 C 11,3 C 20,9 km/h (4 Bft)
17.10.2017 16:00 15,1 C 82 % 1016,5 hPa 0,0 l/m 13,7 km/h (3 Bft) SW 225 0 min 95 W/m 12,0 C 11,8 C 19,3 km/h (3 Bft)
17.10.2017 16:03 15,1 C 81 % 1016,5 hPa 0,0 l/m 15,0 km/h (3 Bft) SW 224 0 min 100 W/m 11,9 C 11,3 C 24,1 km/h (4 Bft)
17.10.2017 16:06 15,1 C 82 % 1016,4 hPa 0,0 l/m 14,6 km/h (3 Bft) SW 219 0 min 98 W/m 12,0 C 11,4 C 22,5 km/h (4 Bft)
17.10.2017 16:09 15,1 C 82 % 1016,4 hPa 0,0 l/m 15,3 km/h (3 Bft) SW 224 0 min 97 W/m 12,0 C 11,2 C 20,9 km/h (4 Bft)
17.10.2017 16:12 15,1 C 82 % 1016,3 hPa 0,0 l/m 14,7 km/h (3 Bft) SW 225 0 min 93 W/m 12,0 C 11,4 C 22,5 km/h (4 Bft)
17.10.2017 16:15 15,1 C 82 % 1016,4 hPa 0,0 l/m 16,2 km/h (3 Bft) SW 230 0 min 91 W/m 12,0 C 10,9 C 27,4 km/h (5 Bft)
17.10.2017 16:18 15,0 C 82 % 1016,4 hPa 0,0 l/m 14,5 km/h (3 Bft) S-SW 209 0 min 98 W/m 12,0 C 11,4 C 24,1 km/h (4 Bft)
17.10.2017 16:21 15,0 C 82 % 1016,4 hPa 0,0 l/m 12,9 km/h (3 Bft) SW 221 0 min 104 W/m 12,0 C 11,9 C 20,9 km/h (4 Bft)
17.10.2017 16:24 14,9 C 81 % 1016,4 hPa 0,0 l/m 19,0 km/h (3 Bft) SW 217 0 min 104 W/m 11,7 C 9,9 C 29,0 km/h (5 Bft)
17.10.2017 16:27 15,0 C 81 % 1016,5 hPa 0,0 l/m 15,6 km/h (3 Bft) SW 220 0 min 95 W/m 11,8 C 11,0 C 22,5 km/h (4 Bft)
17.10.2017 16:30 15,0 C 80 % 1016,4 hPa 0,0 l/m 15,9 km/h (3 Bft) SW 229 0 min 90 W/m 11,6 C 10,9 C 22,5 km/h (4 Bft)
17.10.2017 16:33 15,0 C 80 % 1016,4 hPa 0,0 l/m 15,6 km/h (3 Bft) SW 229 0 min 86 W/m 11,6 C 11,0 C 24,1 km/h (4 Bft)
17.10.2017 16:36 15,0 C 80 % 1016,5 hPa 0,0 l/m 15,6 km/h (3 Bft) SW 236 0 min 81 W/m 11,6 C 11,0 C 27,4 km/h (5 Bft)
17.10.2017 16:39 14,9 C 81 % 1016,4 hPa 0,0 l/m 15,6 km/h (3 Bft) SW 227 0 min 81 W/m 11,7 C 10,9 C 25,7 km/h (4 Bft)
17.10.2017 16:42 14,9 C 81 % 1016,4 hPa 0,0 l/m 14,8 km/h (3 Bft) W 263 0 min 74 W/m 11,7 C 11,1 C 22,5 km/h (4 Bft)
17.10.2017 16:45 14,9 C 81 % 1016,3 hPa 0,0 l/m 16,8 km/h (3 Bft) S-SW 198 0 min 69 W/m 11,7 C 10,5 C 29,0 km/h (5 Bft)
17.10.2017 16:48 14,8 C 81 % 1016,3 hPa 0,0 l/m 15,4 km/h (3 Bft) SW 230 0 min 60 W/m 11,6 C 10,8 C 24,1 km/h (4 Bft)
17.10.2017 16:51 14,8 C 81 % 1016,2 hPa 0,0 l/m 14,8 km/h (3 Bft) S-SW 213 0 min 54 W/m 11,6 C 11,0 C 22,5 km/h (4 Bft)
17.10.2017 16:54 14,8 C 81 % 1016,2 hPa 0,0 l/m 14,4 km/h (3 Bft) SW 231 0 min 54 W/m 11,6 C 11,2 C 24,1 km/h (4 Bft)
17.10.2017 16:57 14,7 C 82 % 1016,2 hPa 0,0 l/m 14,7 km/h (3 Bft) SW 232 0 min 54 W/m 11,7 C 10,9 C 20,9 km/h (4 Bft)
17.10.2017 17:00 14,7 C 82 % 1016,2 hPa 0,0 l/m 13,2 km/h (3 Bft) SW 214 0 min 54 W/m 11,7 C 11,5 C 22,5 km/h (4 Bft)
17.10.2017 17:03 14,7 C 82 % 1016,2 hPa 0,0 l/m 16,5 km/h (3 Bft) S-SW 192 0 min 53 W/m 11,7 C 10,3 C 27,4 km/h (5 Bft)
17.10.2017 17:06 14,6 C 82 % 1016,2 hPa 0,0 l/m 16,6 km/h (3 Bft) S-SW 209 0 min 47 W/m 11,6 C 10,2 C 22,5 km/h (4 Bft)
17.10.2017 17:09 14,6 C 83 % 1016,1 hPa 0,0 l/m 14,7 km/h (3 Bft) W-SW 241 0 min 44 W/m 11,7 C 10,8 C 24,1 km/h (4 Bft)
17.10.2017 17:12 14,6 C 83 % 1016,1 hPa 0,0 l/m 12,6 km/h (3 Bft) SW 222 0 min 42 W/m 11,7 C 11,6 C 19,3 km/h (3 Bft)
17.10.2017 17:15 14,5 C 84 % 1016,0 hPa 0,0 l/m 13,8 km/h (3 Bft) SW 222 0 min 40 W/m 11,8 C 11,0 C 22,5 km/h (4 Bft)
17.10.2017 17:18 14,4 C 84 % 1015,9 hPa 0,0 l/m 13,4 km/h (3 Bft) SW 233 0 min 39 W/m 11,7 C 11,0 C 20,9 km/h (4 Bft)
17.10.2017 17:21 14,4 C 85 % 1015,9 hPa 0,0 l/m 13,6 km/h (3 Bft) SW 235 0 min 37 W/m 11,9 C 11,0 C 22,5 km/h (4 Bft)
17.10.2017 17:24 14,4 C 85 % 1015,9 hPa 0,0 l/m 13,5 km/h (3 Bft) SW 217 0 min 33 W/m 11,9 C 11,0 C 20,9 km/h (4 Bft)
17.10.2017 17:27 14,3 C 85 % 1015,9 hPa 0,0 l/m 14,0 km/h (3 Bft) SW 217 0 min 33 W/m 11,8 C 10,7 C 22,5 km/h (4 Bft)
17.10.2017 17:30 14,3 C 85 % 1015,9 hPa 0,0 l/m 15,7 km/h (3 Bft) SW 224 0 min 32 W/m 11,8 C 10,1 C 20,9 km/h (4 Bft)
17.10.2017 17:33 14,3 C 85 % 1015,9 hPa 0,0 l/m 14,9 km/h (3 Bft) SW 219 0 min 30 W/m 11,8 C 10,4 C 22,5 km/h (4 Bft)
17.10.2017 17:36 14,3 C 85 % 1015,8 hPa 0,0 l/m 13,1 km/h (3 Bft) S-SW 203 0 min 32 W/m 11,8 C 11,0 C 22,5 km/h (4 Bft)
17.10.2017 17:39 14,2 C 86 % 1015,8 hPa 0,0 l/m 13,8 km/h (3 Bft) SW 219 0 min 32 W/m 11,9 C 10,6 C 20,9 km/h (4 Bft)
17.10.2017 17:42 14,2 C 86 % 1015,8 hPa 0,0 l/m 12,0 km/h (2 Bft) SW 221 0 min 28 W/m 11,9 C 11,4 C 20,9 km/h (4 Bft)
17.10.2017 17:45 14,2 C 86 % 1015,8 hPa 0,0 l/m 12,7 km/h (3 Bft) SW 227 0 min 25 W/m 11,9 C 11,1 C 20,9 km/h (4 Bft)
17.10.2017 17:48 14,1 C 86 % 1015,8 hPa 0,0 l/m 14,6 km/h (3 Bft) SW 221 0 min 21 W/m 11,8 C 10,2 C 25,7 km/h (4 Bft)
17.10.2017 17:51 14,1 C 86 % 1015,8 hPa 0,0 l/m 14,3 km/h (3 Bft) SW 235 0 min 19 W/m 11,8 C 10,3 C 22,5 km/h (4 Bft)
17.10.2017 17:54 14,1 C 86 % 1015,8 hPa 0,0 l/m 13,6 km/h (3 Bft) SW 234 0 min 18 W/m 11,8 C 10,6 C 20,9 km/h (4 Bft)
17.10.2017 17:57 14,0 C 86 % 1015,8 hPa 0,0 l/m 14,7 km/h (3 Bft) SW 229 0 min 18 W/m 11,7 C 10,1 C 19,3 km/h (3 Bft)
17.10.2017 18:00 14,0 C 86 % 1015,7 hPa 0,0 l/m 16,4 km/h (3 Bft) S 191 0 min 18 W/m 11,7 C 9,5 C 22,5 km/h (4 Bft)
17.10.2017 18:03 14,0 C 87 % 1015,6 hPa 0,0 l/m 13,8 km/h (3 Bft) SW 225 0 min 16 W/m 11,9 C 10,4 C 22,5 km/h (4 Bft)
17.10.2017 18:06 14,0 C 87 % 1015,6 hPa 0,0 l/m 13,8 km/h (3 Bft) SW 227 3 min 14 W/m 11,9 C 10,4 C 22,5 km/h (4 Bft)
17.10.2017 18:09 13,9 C 87 % 1015,6 hPa 0,0 l/m 14,8 km/h (3 Bft) SW 231 3 min 11 W/m 11,8 C 9,9 C 24,1 km/h (4 Bft)
17.10.2017 18:12 13,9 C 87 % 1015,6 hPa 0,0 l/m 14,4 km/h (3 Bft) SW 234 0 min 7 W/m 11,8 C 10,1 C 20,9 km/h (4 Bft)
17.10.2017 18:15 13,9 C 87 % 1015,5 hPa 0,0 l/m 19,2 km/h (3 Bft) S-SW 194 0 min 5 W/m 11,8 C 8,5 C 33,8 km/h (5 Bft)
17.10.2017 18:18 13,8 C 87 % 1015,6 hPa 0,0 l/m 14,6 km/h (3 Bft) SW 225 0 min 0 W/m 11,7 C 9,9 C 22,5 km/h (4 Bft)
17.10.2017 18:21 13,8 C 87 % 1015,7 hPa 0,0 l/m 15,6 km/h (3 Bft) SW 218 0 min 0 W/m 11,7 C 9,5 C 24,1 km/h (4 Bft)
17.10.2017 18:24 13,8 C 87 % 1015,7 hPa 0,0 l/m 12,9 km/h (3 Bft) SW 225 0 min 0 W/m 11,7 C 10,5 C 19,3 km/h (3 Bft)
17.10.2017 18:27 13,8 C 87 % 1015,7 hPa 0,0 l/m 13,4 km/h (3 Bft) SW 227 0 min 0 W/m 11,7 C 10,3 C 19,3 km/h (3 Bft)
17.10.2017 18:30 13,8 C 87 % 1015,7 hPa 0,0 l/m 16,0 km/h (3 Bft) SW 229 0 min 0 W/m 11,7 C 9,4 C 22,5 km/h (4 Bft)
17.10.2017 18:33 13,7 C 87 % 1015,6 hPa 0,0 l/m 17,7 km/h (3 Bft) SW 225 0 min 0 W/m 11,6 C 8,7 C 24,1 km/h (4 Bft)
17.10.2017 18:36 13,7 C 87 % 1015,5 hPa 0,0 l/m 16,4 km/h (3 Bft) SW 223 0 min 0 W/m 11,6 C 9,1 C 24,1 km/h (4 Bft)
17.10.2017 18:39 13,7 C 87 % 1015,6 hPa 0,0 l/m 15,1 km/h (3 Bft) S-SW 210 0 min 0 W/m 11,6 C 9,6 C 24,1 km/h (4 Bft)
17.10.2017 18:42 13,7 C 87 % 1015,6 hPa 0,0 l/m 12,4 km/h (2 Bft) S 172 0 min 0 W/m 11,6 C 10,6 C 19,3 km/h (3 Bft)
17.10.2017 18:45 13,7 C 87 % 1015,6 hPa 0,0 l/m 15,3 km/h (3 Bft) W-SW 244 0 min 0 W/m 11,6 C 9,5 C 24,1 km/h (4 Bft)
17.10.2017 18:48 13,7 C 87 % 1015,6 hPa 0,0 l/m 17,6 km/h (3 Bft) S-SW 209 0 min 0 W/m 11,6 C 8,8 C 29,0 km/h (5 Bft)
17.10.2017 18:51 13,7 C 87 % 1015,5 hPa 0,0 l/m 17,8 km/h (3 Bft) S-SW 207 0 min 0 W/m 11,6 C 8,7 C 32,2 km/h (5 Bft)
17.10.2017 18:54 13,7 C 87 % 1015,5 hPa 0,0 l/m 14,4 km/h (3 Bft) SW 221 0 min 0 W/m 11,6 C 9,8 C 22,5 km/h (4 Bft)
17.10.2017 18:57 13,7 C 87 % 1015,4 hPa 0,0 l/m 16,6 km/h (3 Bft) SW 229 0 min 0 W/m 11,6 C 9,1 C 27,4 km/h (5 Bft)
17.10.2017 19:00 13,7 C 87 % 1015,4 hPa 0,0 l/m 15,6 km/h (3 Bft) SW 225 0 min 0 W/m 11,6 C 9,4 C 22,5 km/h (4 Bft)
17.10.2017 19:03 13,7 C 87 % 1015,5 hPa 0,0 l/m 14,9 km/h (3 Bft) SW 217 0 min 0 W/m 11,6 C 9,7 C 20,9 km/h (4 Bft)
17.10.2017 19:06 13,6 C 87 % 1015,5 hPa 0,0 l/m 13,8 km/h (3 Bft) SW 222 0 min 0 W/m 11,5 C 9,9 C 20,9 km/h (4 Bft)
17.10.2017 19:09 13,6 C 87 % 1015,4 hPa 0,0 l/m 14,9 km/h (3 Bft) SW 220 0 min 0 W/m 11,5 C 9,5 C 20,9 km/h (4 Bft)
17.10.2017 19:12 13,6 C 87 % 1015,4 hPa 0,0 l/m 15,8 km/h (3 Bft) S-SW 193 0 min 0 W/m 11,5 C 9,2 C 22,5 km/h (4 Bft)
17.10.2017 19:15 13,6 C 87 % 1015,5 hPa 0,0 l/m 13,4 km/h (3 Bft) S-SW 199 0 min 0 W/m 11,5 C 10,1 C 19,3 km/h (3 Bft)
17.10.2017 19:18 13,6 C 87 % 1015,5 hPa 0,0 l/m 12,2 km/h (2 Bft) S-SW 205 0 min 0 W/m 11,5 C 10,6 C 20,9 km/h (4 Bft)
17.10.2017 19:21 13,5 C 87 % 1015,4 hPa 0,0 l/m 12,6 km/h (3 Bft) SW 221 0 min 0 W/m 11,4 C 10,3 C 19,3 km/h (3 Bft)
17.10.2017 19:24 13,5 C 87 % 1015,3 hPa 0,0 l/m 15,7 km/h (3 Bft) S-SW 200 0 min 0 W/m 11,4 C 9,1 C 29,0 km/h (5 Bft)
17.10.2017 19:27 13,5 C 87 % 1015,3 hPa 0,0 l/m 13,5 km/h (3 Bft) S-SW 202 0 min 0 W/m 11,4 C 9,9 C 22,5 km/h (4 Bft)
17.10.2017 19:30 13,4 C 88 % 1015,4 hPa 0,0 l/m 11,9 km/h (2 Bft) S-SW 201 0 min 0 W/m 11,5 C 10,5 C 17,7 km/h (3 Bft)
17.10.2017 19:33 13,4 C 88 % 1015,4 hPa 0,0 l/m 15,5 km/h (3 Bft) SW 221 0 min 0 W/m 11,5 C 9,1 C 25,7 km/h (4 Bft)
17.10.2017 19:36 13,4 C 88 % 1015,4 hPa 0,0 l/m 13,3 km/h (3 Bft) SW 229 0 min 0 W/m 11,5 C 9,9 C 22,5 km/h (4 Bft)
17.10.2017 19:39 13,3 C 88 % 1015,4 hPa 0,0 l/m 15,6 km/h (3 Bft) S-SW 207 0 min 0 W/m 11,4 C 8,9 C 24,1 km/h (4 Bft)
17.10.2017 19:42 13,3 C 88 % 1015,4 hPa 0,0 l/m 16,6 km/h (3 Bft) SW 222 0 min 0 W/m 11,4 C 8,6 C 25,7 km/h (4 Bft)
17.10.2017 19:45 13,3 C 88 % 1015,4 hPa 0,0 l/m 14,1 km/h (3 Bft) SW 226 0 min 0 W/m 11,4 C 9,5 C 24,1 km/h (4 Bft)
17.10.2017 19:48 13,3 C 88 % 1015,4 hPa 0,0 l/m 16,3 km/h (3 Bft) W-SW 238 0 min 0 W/m 11,4 C 8,7 C 25,7 km/h (4 Bft)
17.10.2017 19:51 13,3 C 88 % 1015,5 hPa 0,0 l/m 16,5 km/h (3 Bft) S-SW 205 0 min 0 W/m 11,4 C 8,6 C 22,5 km/h (4 Bft)
17.10.2017 19:54 13,3 C 88 % 1015,5 hPa 0,0 l/m 15,0 km/h (3 Bft) W-SW 246 0 min 0 W/m 11,4 C 9,1 C 25,7 km/h (4 Bft)
17.10.2017 19:57 13,3 C 88 % 1015,6 hPa 0,0 l/m 11,4 km/h (2 Bft) S-SW 207 0 min 0 W/m 11,4 C 10,6 C 17,7 km/h (3 Bft)
17.10.2017 20:00 13,3 C 89 % 1015,7 hPa 0,0 l/m 12,4 km/h (2 Bft) SW 226 0 min 0 W/m 11,5 C 10,1 C 20,9 km/h (4 Bft)
17.10.2017 20:03 13,3 C 88 % 1015,7 hPa 0,0 l/m 11,4 km/h (2 Bft) W-SW 246 0 min 0 W/m 11,4 C 10,6 C 17,7 km/h (3 Bft)
17.10.2017 20:06 13,2 C 89 % 1015,7 hPa 0,0 l/m 12,3 km/h (2 Bft) SW 225 0 min 0 W/m 11,4 C 10,1 C 19,3 km/h (3 Bft)
17.10.2017 20:09 13,2 C 89 % 1015,6 hPa 0,0 l/m 16,2 km/h (3 Bft) SW 231 0 min 0 W/m 11,4 C 8,6 C 27,4 km/h (5 Bft)
17.10.2017 20:12 13,2 C 89 % 1015,6 hPa 0,0 l/m 17,4 km/h (3 Bft) SW 219 0 min 0 W/m 11,4 C 8,2 C 22,5 km/h (4 Bft)
17.10.2017 20:15 13,2 C 89 % 1015,6 hPa 0,0 l/m 15,1 km/h (3 Bft) SW 224 0 min 0 W/m 11,4 C 9,0 C 22,5 km/h (4 Bft)
17.10.2017 20:18 13,2 C 89 % 1015,6 hPa 0,0 l/m 14,0 km/h (3 Bft) SW 214 0 min 0 W/m 11,4 C 9,4 C 19,3 km/h (3 Bft)
17.10.2017 20:21 13,2 C 89 % 1015,6 hPa 0,0 l/m 16,2 km/h (3 Bft) SW 234 0 min 0 W/m 11,4 C 8,6 C 25,7 km/h (4 Bft)
17.10.2017 20:24 13,2 C 89 % 1015,5 hPa 0,0 l/m 14,9 km/h (3 Bft) W-SW 243 0 min 0 W/m 11,4 C 9,0 C 22,5 km/h (4 Bft)
17.10.2017 20:27 13,2 C 89 % 1015,6 hPa 0,0 l/m 13,7 km/h (3 Bft) SW 229 0 min 0 W/m 11,4 C 9,5 C 19,3 km/h (3 Bft)
17.10.2017 20:30 13,2 C 89 % 1015,6 hPa 0,0 l/m 12,8 km/h (3 Bft) S-SW 213 0 min 0 W/m 11,4 C 9,9 C 17,7 km/h (3 Bft)
17.10.2017 20:33 13,1 C 89 % 1015,7 hPa 0,0 l/m 14,5 km/h (3 Bft) W-SW 246 0 min 0 W/m 11,3 C 9,1 C 22,5 km/h (4 Bft)
17.10.2017 20:36 13,1 C 90 % 1015,6 hPa 0,0 l/m 14,2 km/h (3 Bft) SW 223 0 min 0 W/m 11,5 C 9,2 C 20,9 km/h (4 Bft)
17.10.2017 20:39 13,1 C 90 % 1015,6 hPa 0,0 l/m 17,1 km/h (3 Bft) S-SW 202 0 min 0 W/m 11,5 C 8,2 C 25,7 km/h (4 Bft)
17.10.2017 20:42 13,1 C 90 % 1015,7 hPa 0,0 l/m 17,5 km/h (3 Bft) SW 227 0 min 0 W/m 11,5 C 8,0 C 27,4 km/h (5 Bft)
17.10.2017 20:45 13,2 C 90 % 1015,8 hPa 0,0 l/m 15,4 km/h (3 Bft) SW 221 0 min 0 W/m 11,6 C 8,9 C 24,1 km/h (4 Bft)
17.10.2017 20:48 13,2 C 90 % 1015,7 hPa 0,0 l/m 16,1 km/h (3 Bft) SW 218 0 min 0 W/m 11,6 C 8,6 C 25,7 km/h (4 Bft)
17.10.2017 20:51 13,2 C 90 % 1015,7 hPa 0,0 l/m 14,7 km/h (3 Bft) SW 229 0 min 0 W/m 11,6 C 9,1 C 24,1 km/h (4 Bft)
17.10.2017 20:54 13,2 C 90 % 1015,6 hPa 0,0 l/m 15,3 km/h (3 Bft) S-SW 212 0 min 0 W/m 11,6 C 8,9 C 29,0 km/h (5 Bft)
17.10.2017 20:57 13,2 C 90 % 1015,6 hPa 0,0 l/m 16,4 km/h (3 Bft) SW 224 0 min 0 W/m 11,6 C 8,5 C 24,1 km/h (4 Bft)
17.10.2017 21:00 13,2 C 90 % 1015,7 hPa 0,0 l/m 14,6 km/h (3 Bft) SW 230 0 min 0 W/m 11,6 C 9,2 C 22,5 km/h (4 Bft)
17.10.2017 21:03 13,2 C 90 % 1015,7 hPa 0,0 l/m 12,0 km/h (2 Bft) SW 217 0 min 0 W/m 11,6 C 10,2 C 17,7 km/h (3 Bft)
17.10.2017 21:06 13,2 C 90 % 1015,7 hPa 0,0 l/m 14,8 km/h (3 Bft) W 263 0 min 0 W/m 11,6 C 9,1 C 25,7 km/h (4 Bft)
17.10.2017 21:09 13,2 C 90 % 1015,8 hPa 0,0 l/m 14,1 km/h (3 Bft) W-SW 238 0 min 0 W/m 11,6 C 9,3 C 22,5 km/h (4 Bft)
17.10.2017 21:12 13,2 C 90 % 1015,8 hPa 0,0 l/m 14,6 km/h (3 Bft) W-SW 237 0 min 0 W/m 11,6 C 9,2 C 24,1 km/h (4 Bft)
17.10.2017 21:15 13,2 C 90 % 1015,7 hPa 0,0 l/m 13,5 km/h (3 Bft) SW 226 0 min 0 W/m 11,6 C 9,6 C 20,9 km/h (4 Bft)
17.10.2017 21:18 13,2 C 90 % 1015,7 hPa 0,0 l/m 16,9 km/h (3 Bft) SW 224 0 min 0 W/m 11,6 C 8,4 C 24,1 km/h (4 Bft)
17.10.2017 21:21 13,2 C 90 % 1015,8 hPa 0,0 l/m 15,1 km/h (3 Bft) S-SW 200 0 min 0 W/m 11,6 C 9,0 C 22,5 km/h (4 Bft)
17.10.2017 21:24 13,1 C 90 % 1015,8 hPa 0,0 l/m 13,1 km/h (3 Bft) SW 223 0 min 0 W/m 11,5 C 9,6 C 20,9 km/h (4 Bft)
17.10.2017 21:27 13,1 C 90 % 1015,9 hPa 0,0 l/m 13,3 km/h (3 Bft) W-SW 246 0 min 0 W/m 11,5 C 9,5 C 19,3 km/h (3 Bft)
17.10.2017 21:30 13,1 C 90 % 1015,9 hPa 0,0 l/m 11,4 km/h (2 Bft) S-SW 198 0 min 0 W/m 11,5 C 10,4 C 22,5 km/h (4 Bft)
17.10.2017 21:33 13,1 C 91 % 1015,8 hPa 0,0 l/m 12,3 km/h (2 Bft) SW 221 0 min 0 W/m 11,7 C 10,0 C 17,7 km/h (3 Bft)
17.10.2017 21:36 13,1 C 91 % 1015,7 hPa 0,0 l/m 12,9 km/h (3 Bft) SW 232 0 min 0 W/m 11,7 C 9,7 C 20,9 km/h (4 Bft)
17.10.2017 21:39 13,1 C 91 % 1015,7 hPa 0,0 l/m 13,8 km/h (3 Bft) S-SW 200 0 min 0 W/m 11,7 C 9,3 C 20,9 km/h (4 Bft)
17.10.2017 21:42 13,1 C 91 % 1015,8 hPa 0,0 l/m 12,4 km/h (2 Bft) SW 226 0 min 0 W/m 11,7 C 9,9 C 16,1 km/h (3 Bft)
17.10.2017 21:45 13,1 C 91 % 1015,8 hPa 0,0 l/m 13,6 km/h (3 Bft) S-SW 193 0 min 0 W/m 11,7 C 9,4 C 17,7 km/h (3 Bft)
17.10.2017 21:48 13,0 C 91 % 1015,8 hPa 0,0 l/m 12,4 km/h (2 Bft) SW 217 0 min 0 W/m 11,6 C 9,8 C 20,9 km/h (4 Bft)
17.10.2017 21:51 13,0 C 91 % 1015,8 hPa 0,0 l/m 12,2 km/h (2 Bft) SW 236 0 min 0 W/m 11,6 C 9,9 C 20,9 km/h (4 Bft)
17.10.2017 21:54 13,0 C 91 % 1015,8 hPa 0,0 l/m 11,2 km/h (2 Bft) S-SW 210 0 min 0 W/m 11,6 C 10,3 C 17,7 km/h (3 Bft)
17.10.2017 21:57 12,9 C 91 % 1015,9 hPa 0,0 l/m 9,8 km/h (2 Bft) SW 225 0 min 0 W/m 11,5 C 10,9 C 14,5 km/h (3 Bft)
17.10.2017 22:00 12,9 C 91 % 1016,0 hPa 0,0 l/m 10,9 km/h (2 Bft) SW 230 0 min 0 W/m 11,5 C 10,4 C 17,7 km/h (3 Bft)
17.10.2017 22:03 12,9 C 91 % 1015,9 hPa 0,0 l/m 11,0 km/h (2 Bft) SW 220 0 min 0 W/m 11,5 C 10,3 C 16,1 km/h (3 Bft)
17.10.2017 22:06 12,9 C 91 % 1015,9 hPa 0,0 l/m 13,1 km/h (3 Bft) S-SW 210 0 min 0 W/m 11,5 C 9,4 C 20,9 km/h (4 Bft)
17.10.2017 22:09 12,9 C 91 % 1015,9 hPa 0,0 l/m 12,3 km/h (2 Bft) W-SW 244 0 min 0 W/m 11,5 C 9,7 C 22,5 km/h (4 Bft)
17.10.2017 22:12 12,9 C 91 % 1015,9 hPa 0,0 l/m 12,1 km/h (2 Bft) S-SW 209 0 min 0 W/m 11,5 C 9,8 C 17,7 km/h (3 Bft)
17.10.2017 22:15 12,9 C 91 % 1015,9 hPa 0,0 l/m 12,3 km/h (2 Bft) S-SW 206 0 min 0 W/m 11,5 C 9,7 C 17,7 km/h (3 Bft)
17.10.2017 22:18 12,8 C 91 % 1015,9 hPa 0,0 l/m 11,5 km/h (2 Bft) S-SW 197 0 min 0 W/m 11,4 C 10,0 C 19,3 km/h (3 Bft)
17.10.2017 22:21 12,8 C 91 % 1015,9 hPa 0,0 l/m 12,2 km/h (2 Bft) SW 222 0 min 0 W/m 11,4 C 9,7 C 20,9 km/h (4 Bft)
17.10.2017 22:24 12,8 C 91 % 1015,9 hPa 0,0 l/m 13,0 km/h (3 Bft) SW 223 0 min 0 W/m 11,4 C 9,3 C 19,3 km/h (3 Bft)
17.10.2017 22:27 12,8 C 91 % 1016,0 hPa 0,0 l/m 10,5 km/h (2 Bft) S-SW 200 0 min 0 W/m 11,4 C 10,4 C 19,3 km/h (3 Bft)
17.10.2017 22:30 12,8 C 91 % 1015,9 hPa 0,0 l/m 10,6 km/h (2 Bft) W-SW 244 0 min 0 W/m 11,4 C 10,4 C 16,1 km/h (3 Bft)
17.10.2017 22:33 12,8 C 91 % 1015,8 hPa 0,0 l/m 13,5 km/h (3 Bft) S-SW 213 0 min 0 W/m 11,4 C 9,1 C 19,3 km/h (3 Bft)
17.10.2017 22:36 12,8 C 91 % 1015,8 hPa 0,0 l/m 12,5 km/h (2 Bft) SW 234 0 min 0 W/m 11,4 C 9,5 C 17,7 km/h (3 Bft)
17.10.2017 22:39 12,8 C 91 % 1015,7 hPa 0,0 l/m 11,5 km/h (2 Bft) S-SW 202 0 min 0 W/m 11,4 C 10,0 C 17,7 km/h (3 Bft)
17.10.2017 22:42 12,7 C 91 % 1015,7 hPa 0,0 l/m 13,3 km/h (3 Bft) SW 220 0 min 0 W/m 11,3 C 9,1 C 20,9 km/h (4 Bft)
17.10.2017 22:45 12,7 C 91 % 1015,7 hPa 0,0 l/m 12,9 km/h (3 Bft) S 189 0 min 0 W/m 11,3 C 9,2 C 17,7 km/h (3 Bft)
17.10.2017 22:48 12,7 C 91 % 1015,7 hPa 0,0 l/m 12,3 km/h (2 Bft) S-SW 207 0 min 0 W/m 11,3 C 9,5 C 20,9 km/h (4 Bft)
17.10.2017 22:51 12,7 C 91 % 1015,8 hPa 0,0 l/m 12,9 km/h (3 Bft) SW 225 0 min 0 W/m 11,3 C 9,2 C 20,9 km/h (4 Bft)
17.10.2017 22:54 12,7 C 91 % 1015,8 hPa 0,0 l/m 10,9 km/h (2 Bft) SW 227 0 min 0 W/m 11,3 C 10,1 C 17,7 km/h (3 Bft)
17.10.2017 22:57 12,7 C 91 % 1015,7 hPa 0,0 l/m 11,9 km/h (2 Bft) SW 232 0 min 0 W/m 11,3 C 9,7 C 22,5 km/h (4 Bft)
17.10.2017 23:00 12,7 C 91 % 1015,7 hPa 0,0 l/m 11,5 km/h (2 Bft) SW 219 0 min 0 W/m 11,3 C 9,8 C 19,3 km/h (3 Bft)
17.10.2017 23:03 12,6 C 91 % 1015,7 hPa 0,0 l/m 12,1 km/h (2 Bft) S-SW 211 0 min 0 W/m 11,2 C 9,5 C 20,9 km/h (4 Bft)
17.10.2017 23:06 12,6 C 91 % 1015,7 hPa 0,0 l/m 12,0 km/h (2 Bft) SW 229 0 min 0 W/m 11,2 C 9,5 C 19,3 km/h (3 Bft)
17.10.2017 23:09 12,6 C 91 % 1015,6 hPa 0,0 l/m 12,4 km/h (2 Bft) S-SW 213 0 min 0 W/m 11,2 C 9,3 C 20,9 km/h (4 Bft)
17.10.2017 23:12 12,6 C 91 % 1015,6 hPa 0,0 l/m 9,3 km/h (2 Bft) SW 219 0 min 0 W/m 11,2 C 10,8 C 17,7 km/h (3 Bft)
17.10.2017 23:15 12,6 C 91 % 1015,6 hPa 0,0 l/m 10,5 km/h (2 Bft) SW 236 0 min 0 W/m 11,2 C 10,2 C 16,1 km/h (3 Bft)
17.10.2017 23:18 12,6 C 91 % 1015,6 hPa 0,0 l/m 11,5 km/h (2 Bft) S-SW 202 0 min 0 W/m 11,2 C 9,7 C 17,7 km/h (3 Bft)
17.10.2017 23:21 12,5 C 91 % 1015,5 hPa 0,0 l/m 10,5 km/h (2 Bft) S-SW 201 0 min 0 W/m 11,1 C 10,1 C 16,1 km/h (3 Bft)
17.10.2017 23:24 12,5 C 91 % 1015,5 hPa 0,0 l/m 13,1 km/h (3 Bft) SW 229 0 min 0 W/m 11,1 C 8,9 C 19,3 km/h (3 Bft)
17.10.2017 23:27 12,5 C 91 % 1015,5 hPa 0,0 l/m 11,3 km/h (2 Bft) SW 228 0 min 0 W/m 11,1 C 9,7 C 16,1 km/h (3 Bft)
17.10.2017 23:30 12,4 C 91 % 1015,5 hPa 0,0 l/m 8,6 km/h (2 Bft) S-SW 205 0 min 0 W/m 11,0 C 11,0 C 12,9 km/h (3 Bft)
17.10.2017 23:33 12,4 C 91 % 1015,6 hPa 0,0 l/m 10,2 km/h (2 Bft) SW 223 0 min 0 W/m 11,0 C 10,1 C 16,1 km/h (3 Bft)
17.10.2017 23:36 12,4 C 91 % 1015,5 hPa 0,0 l/m 10,9 km/h (2 Bft) S-SW 200 0 min 0 W/m 11,0 C 9,8 C 16,1 km/h (3 Bft)
17.10.2017 23:39 12,4 C 91 % 1015,4 hPa 0,0 l/m 13,2 km/h (3 Bft) W-SW 257 0 min 0 W/m 11,0 C 8,8 C 20,9 km/h (4 Bft)
17.10.2017 23:42 12,4 C 91 % 1015,4 hPa 0,0 l/m 12,1 km/h (2 Bft) SW 219 0 min 0 W/m 11,0 C 9,2 C 19,3 km/h (3 Bft)
17.10.2017 23:45 12,4 C 91 % 1015,5 hPa 0,0 l/m 11,0 km/h (2 Bft) W-SW 251 0 min 0 W/m 11,0 C 9,7 C 20,9 km/h (4 Bft)
17.10.2017 23:48 12,3 C 92 % 1015,6 hPa 0,0 l/m 10,9 km/h (2 Bft) S-SW 213 0 min 0 W/m 11,0 C 9,7 C 19,3 km/h (3 Bft)
17.10.2017 23:51 12,3 C 92 % 1015,5 hPa 0,0 l/m 11,6 km/h (2 Bft) SW 233 0 min 0 W/m 11,0 C 9,3 C 17,7 km/h (3 Bft)
17.10.2017 23:54 12,3 C 92 % 1015,3 hPa 0,0 l/m 11,4 km/h (2 Bft) SW 229 0 min 0 W/m 11,0 C 9,4 C 17,7 km/h (3 Bft)
17.10.2017 23:57 12,3 C 92 % 1015,3 hPa 0,0 l/m 13,7 km/h (3 Bft) S-SW 206 0 min 0 W/m 11,0 C 8,4 C 22,5 km/h (4 Bft)
_ Min-Zeit 23:48 13:45 19:24 - 00:12 - - - - 23:30 20:42 23:30
Minimum _ 12,3 C 78 % 1015,3 hPa - 8,5 km/h (2 Bft) - - - - 11,0 C 8,0 C 12,9 km/h (3 Bft)
_ Max-Zeit 00:00 23:48 10:00 00:00 12:45 - - 12:18 12:24 00:00 00:12 13:54
Maximum _ 19,0 C 92 % 1017,8 hPa 0,0 l/m 24,3 km/h
S-SW (4 Bft)
- - 3 min 255 W/m 15,7 C 17,9 C 38,6 km/h
SW (6 Bft)
Durchschnitt _ 15,2 C 84 % 1016,6 hPa #0,0 l/m 14,8 km/h (3 Bft) SW - #21 min. 120 W/m 12,5 C 11,6 C 23,1 km/h (4 Bft)
2017 Cux-Wetter.de -Die Nutzung der Wetterdaten nur mit ausdrcklicher Genehmigung